Wetterdaten: Montag, 14.04.2014
Datum Zeit Temp. Aussen +5cm Feuchte Auss Luftdruck Regen Sonnenschein Regendauer UV Solar Windben
14.04.2014 00:00 6,5 C 4,4 C 83 % 1017,9 hPa 0,0 l/m 0 min 0 min 0,0 UV-I 0 W/m 0,0 km/h (0 Bft)
14.04.2014 00:02 6,4 C 4,4 C 83 % 1017,8 hPa 0,0 l/m 0 min 0 min 0,0 UV-I 0 W/m 0,0 km/h (0 Bft)
14.04.2014 00:06 6,4 C 5,0 C 84 % 1017,8 hPa 0,0 l/m 0 min 0 min 0,0 UV-I 0 W/m 7,7 km/h (2 Bft)
14.04.2014 00:08 6,4 C 5,0 C 84 % 1017,8 hPa 0,0 l/m 0 min 0 min 0,0 UV-I 0 W/m 2,6 km/h (1 Bft)
14.04.2014 00:10 6,4 C 5,0 C 84 % 1017,8 hPa 0,0 l/m 0 min 0 min 0,0 UV-I 0 W/m 0,0 km/h (0 Bft)
14.04.2014 00:12 6,4 C 5,0 C 84 % 1017,8 hPa 0,0 l/m 0 min 0 min 0,0 UV-I 0 W/m 0,0 km/h (0 Bft)
14.04.2014 00:14 6,5 C 5,0 C 84 % 1017,8 hPa 0,0 l/m 0 min 0 min 0,0 UV-I 0 W/m 0,0 km/h (0 Bft)
14.04.2014 00:16 6,4 C 5,0 C 84 % 1017,7 hPa 0,0 l/m 0 min 0 min 0,0 UV-I 0 W/m 0,0 km/h (0 Bft)
14.04.2014 00:18 6,4 C 5,0 C 83 % 1017,7 hPa 0,0 l/m 0 min 0 min 0,0 UV-I 0 W/m 0,0 km/h (0 Bft)
14.04.2014 00:20 6,4 C 5,0 C 83 % 1017,7 hPa 0,0 l/m 0 min 0 min 0,0 UV-I 0 W/m 0,0 km/h (0 Bft)
14.04.2014 00:22 6,4 C 5,0 C 83 % 1017,7 hPa 0,0 l/m 0 min 0 min 0,0 UV-I 0 W/m 0,0 km/h (0 Bft)
14.04.2014 00:24 6,4 C 5,0 C 83 % 1017,7 hPa 0,0 l/m 0 min 0 min 0,0 UV-I 0 W/m 0,0 km/h (0 Bft)
14.04.2014 00:26 6,4 C 5,0 C 84 % 1017,7 hPa 0,0 l/m 0 min 0 min 0,0 UV-I 0 W/m 0,0 km/h (0 Bft)
14.04.2014 00:28 6,4 C 5,0 C 84 % 1017,7 hPa 0,0 l/m 0 min 0 min 0,0 UV-I 0 W/m 0,0 km/h (0 Bft)
14.04.2014 00:30 6,4 C 5,0 C 84 % 1017,7 hPa 0,0 l/m 0 min 0 min 0,0 UV-I 0 W/m 0,0 km/h (0 Bft)
14.04.2014 00:32 6,4 C 5,0 C 83 % 1017,7 hPa 0,0 l/m 0 min 0 min 0,0 UV-I 0 W/m 0,0 km/h (0 Bft)
14.04.2014 00:34 6,4 C 5,0 C 83 % 1017,7 hPa 0,0 l/m 0 min 0 min 0,0 UV-I 0 W/m 0,0 km/h (0 Bft)
14.04.2014 00:36 6,3 C 5,0 C 84 % 1017,7 hPa 0,0 l/m 0 min 0 min 0,0 UV-I 0 W/m 0,0 km/h (0 Bft)
14.04.2014 00:38 6,3 C 5,0 C 84 % 1017,6 hPa 0,0 l/m 0 min 0 min 0,0 UV-I 0 W/m 0,0 km/h (0 Bft)
14.04.2014 00:40 6,3 C 5,0 C 85 % 1017,6 hPa 0,0 l/m 0 min 0 min 0,0 UV-I 0 W/m 0,0 km/h (0 Bft)
14.04.2014 00:42 6,4 C 5,0 C 85 % 1017,6 hPa 0,0 l/m 0 min 0 min 0,0 UV-I 0 W/m 0,0 km/h (0 Bft)
14.04.2014 00:44 6,4 C 5,6 C 85 % 1017,6 hPa 0,0 l/m 0 min 0 min 0,0 UV-I 0 W/m 0,0 km/h (0 Bft)
14.04.2014 00:46 6,6 C 5,6 C 85 % 1017,7 hPa 0,0 l/m 0 min 0 min 0,0 UV-I 0 W/m 0,0 km/h (0 Bft)
14.04.2014 00:48 6,7 C 5,6 C 84 % 1017,7 hPa 0,0 l/m 0 min 0 min 0,0 UV-I 0 W/m 0,0 km/h (0 Bft)
14.04.2014 00:50 6,8 C 5,6 C 84 % 1017,6 hPa 0,0 l/m 0 min 0 min 0,0 UV-I 0 W/m 0,0 km/h (0 Bft)
14.04.2014 00:52 6,9 C 5,6 C 84 % 1017,7 hPa 0,0 l/m 0 min 0 min 0,0 UV-I 0 W/m 0,0 km/h (0 Bft)
14.04.2014 00:54 6,9 C 6,1 C 83 % 1017,6 hPa 0,0 l/m 0 min 0 min 0,0 UV-I 0 W/m 0,0 km/h (0 Bft)
14.04.2014 00:56 6,9 C 6,1 C 83 % 1017,6 hPa 0,0 l/m 0 min 0 min 0,0 UV-I 0 W/m 0,0 km/h (0 Bft)
14.04.2014 00:58 6,9 C 6,1 C 83 % 1017,5 hPa 0,0 l/m 0 min 0 min 0,0 UV-I 0 W/m 0,0 km/h (0 Bft)
14.04.2014 01:00 7,0 C 6,1 C 83 % 1017,5 hPa 0,0 l/m 0 min 0 min 0,0 UV-I 0 W/m 0,0 km/h (0 Bft)
14.04.2014 01:03 7,1 C 6,1 C 83 % 1017,3 hPa 0,0 l/m 0 min 0 min 0,0 UV-I 0 W/m 7,7 km/h (2 Bft)
14.04.2014 01:04 7,1 C 6,1 C 83 % 1017,3 hPa 0,0 l/m 0 min 0 min 0,0 UV-I 0 W/m 2,6 km/h (1 Bft)
14.04.2014 01:06 7,1 C 6,1 C 83 % 1017,3 hPa 0,0 l/m 0 min 0 min 0,0 UV-I 0 W/m 5,1 km/h (1 Bft)
14.04.2014 01:08 7,2 C 6,1 C 83 % 1017,2 hPa 0,0 l/m 0 min 0 min 0,0 UV-I 0 W/m 10,3 km/h (2 Bft)
14.04.2014 01:10 7,2 C 6,1 C 83 % 1017,1 hPa 0,0 l/m 0 min 0 min 0,0 UV-I 0 W/m 2,6 km/h (1 Bft)
14.04.2014 01:12 7,2 C 6,1 C 82 % 1017,0 hPa 0,0 l/m 0 min 0 min 0,0 UV-I 0 W/m 7,7 km/h (2 Bft)
14.04.2014 01:14 7,3 C 6,7 C 82 % 1017,1 hPa 0,0 l/m 0 min 0 min 0,0 UV-I 0 W/m 5,1 km/h (1 Bft)
14.04.2014 01:16 7,3 C 6,7 C 82 % 1017,1 hPa 0,0 l/m 0 min 0 min 0,0 UV-I 0 W/m 0,0 km/h (0 Bft)
14.04.2014 01:18 7,4 C 6,7 C 82 % 1017,1 hPa 0,0 l/m 0 min 0 min 0,0 UV-I 0 W/m 2,6 km/h (1 Bft)
14.04.2014 01:20 7,4 C 6,7 C 82 % 1017,1 hPa 0,0 l/m 0 min 0 min 0,0 UV-I 0 W/m 2,6 km/h (1 Bft)
14.04.2014 01:22 7,4 C 6,7 C 82 % 1017,1 hPa 0,0 l/m 0 min 0 min 0,0 UV-I 0 W/m 7,7 km/h (2 Bft)
14.04.2014 01:24 7,5 C 6,7 C 81 % 1017,1 hPa 0,0 l/m 0 min 0 min 0,0 UV-I 0 W/m 10,3 km/h (2 Bft)
14.04.2014 01:26 7,5 C 6,7 C 81 % 1017,1 hPa 0,0 l/m 0 min 0 min 0,0 UV-I 0 W/m 7,7 km/h (2 Bft)
14.04.2014 01:28 7,5 C 6,7 C 81 % 1017,0 hPa 0,0 l/m 0 min 0 min 0,0 UV-I 0 W/m 0,0 km/h (0 Bft)
14.04.2014 01:30 7,5 C 6,7 C 81 % 1017,1 hPa 0,0 l/m 0 min 0 min 0,0 UV-I 0 W/m 5,1 km/h (1 Bft)
14.04.2014 01:32 7,6 C 6,7 C 81 % 1017,0 hPa 0,0 l/m 0 min 0 min 0,0 UV-I 0 W/m 5,1 km/h (1 Bft)
14.04.2014 01:34 7,6 C 6,7 C 81 % 1016,9 hPa 0,0 l/m 0 min 0 min 0,0 UV-I 0 W/m 7,7 km/h (2 Bft)
14.04.2014 01:36 7,6 C 6,7 C 81 % 1016,8 hPa 0,0 l/m 0 min 0 min 0,0 UV-I 0 W/m 5,1 km/h (1 Bft)
14.04.2014 01:38 7,6 C 6,7 C 81 % 1016,8 hPa 0,0 l/m 0 min 0 min 0,0 UV-I 0 W/m 0,0 km/h (0 Bft)
14.04.2014 01:40 7,6 C 6,7 C 81 % 1016,8 hPa 0,0 l/m 0 min 0 min 0,0 UV-I 0 W/m 0,0 km/h (0 Bft)
14.04.2014 01:42 7,6 C 6,7 C 81 % 1016,7 hPa 0,0 l/m 0 min 0 min 0,0 UV-I 0 W/m 0,0 km/h (0 Bft)
14.04.2014 01:44 7,6 C 6,7 C 81 % 1016,8 hPa 0,0 l/m 0 min 0 min 0,0 UV-I 0 W/m 0,0 km/h (0 Bft)
14.04.2014 01:46 7,6 C 6,7 C 81 % 1016,7 hPa 0,0 l/m 0 min 0 min 0,0 UV-I 0 W/m 5,1 km/h (1 Bft)
14.04.2014 01:48 7,6 C 6,7 C 81 % 1016,5 hPa 0,0 l/m 0 min 0 min 0,0 UV-I 0 W/m 0,0 km/h (0 Bft)
14.04.2014 01:50 7,6 C 6,7 C 81 % 1016,4 hPa 0,0 l/m 0 min 0 min 0,0 UV-I 0 W/m 0,0 km/h (0 Bft)
14.04.2014 01:52 7,6 C 6,7 C 81 % 1016,3 hPa 0,0 l/m 0 min 0 min 0,0 UV-I 0 W/m 2,6 km/h (1 Bft)
14.04.2014 01:54 7,7 C 6,7 C 80 % 1016,4 hPa 0,0 l/m 0 min 0 min 0,0 UV-I 0 W/m 10,3 km/h (2 Bft)
14.04.2014 01:56 7,7 C 6,7 C 80 % 1016,2 hPa 0,0 l/m 0 min 0 min 0,0 UV-I 0 W/m 10,3 km/h (2 Bft)
14.04.2014 01:58 7,7 C 6,7 C 80 % 1016,2 hPa 0,0 l/m 0 min 0 min 0,0 UV-I 0 W/m 10,3 km/h (2 Bft)
14.04.2014 02:00 7,7 C 6,7 C 80 % 1016,1 hPa 0,0 l/m 0 min 0 min 0,0 UV-I 0 W/m 5,1 km/h (1 Bft)
14.04.2014 02:02 7,7 C 6,7 C 80 % 1016,1 hPa 0,0 l/m 0 min 0 min 0,0 UV-I 0 W/m 7,7 km/h (2 Bft)
14.04.2014 02:06 7,8 C 6,7 C 80 % 1015,9 hPa 0,0 l/m 0 min 0 min 0,0 UV-I 0 W/m 5,1 km/h (1 Bft)
14.04.2014 02:08 7,8 C 6,7 C 80 % 1015,9 hPa 0,0 l/m 0 min 0 min 0,0 UV-I 0 W/m 10,3 km/h (2 Bft)
14.04.2014 02:10 7,8 C 6,7 C 80 % 1015,9 hPa 0,0 l/m 0 min 0 min 0,0 UV-I 0 W/m 2,6 km/h (1 Bft)
14.04.2014 02:12 7,8 C 6,7 C 80 % 1015,9 hPa 0,0 l/m 0 min 0 min 0,0 UV-I 0 W/m 2,6 km/h (1 Bft)
14.04.2014 02:14 7,8 C 6,7 C 80 % 1015,9 hPa 0,0 l/m 0 min 0 min 0,0 UV-I 0 W/m 7,7 km/h (2 Bft)
14.04.2014 02:16 7,8 C 6,7 C 80 % 1015,9 hPa 0,0 l/m 0 min 0 min 0,0 UV-I 0 W/m 0,0 km/h (0 Bft)
14.04.2014 02:18 7,9 C 6,7 C 80 % 1015,9 hPa 0,0 l/m 0 min 0 min 0,0 UV-I 0 W/m 0,0 km/h (0 Bft)
14.04.2014 02:20 7,9 C 7,2 C 80 % 1015,8 hPa 0,0 l/m 0 min 0 min 0,0 UV-I 0 W/m 10,3 km/h (2 Bft)
14.04.2014 02:22 7,9 C 7,2 C 79 % 1015,7 hPa 0,0 l/m 0 min 0 min 0,0 UV-I 0 W/m 2,6 km/h (1 Bft)
14.04.2014 02:24 7,9 C 7,2 C 79 % 1015,7 hPa 0,0 l/m 0 min 0 min 0,0 UV-I 0 W/m 12,9 km/h (3 Bft)
14.04.2014 02:26 8,0 C 7,2 C 79 % 1015,6 hPa 0,0 l/m 0 min 0 min 0,0 UV-I 0 W/m 2,6 km/h (1 Bft)
14.04.2014 02:28 8,1 C 7,2 C 79 % 1015,6 hPa 0,0 l/m 0 min 0 min 0,0 UV-I 0 W/m 0,0 km/h (0 Bft)
14.04.2014 02:30 8,1 C 7,2 C 79 % 1015,6 hPa 0,0 l/m 0 min 0 min 0,0 UV-I 0 W/m 7,7 km/h (2 Bft)
14.04.2014 02:32 8,1 C 7,2 C 79 % 1015,6 hPa 0,0 l/m 0 min 0 min 0,0 UV-I 0 W/m 7,7 km/h (2 Bft)
14.04.2014 02:34 8,2 C 7,2 C 79 % 1015,6 hPa 0,0 l/m 0 min 0 min 0,0 UV-I 0 W/m 2,6 km/h (1 Bft)
14.04.2014 02:36 8,2 C 7,2 C 79 % 1015,6 hPa 0,0 l/m 0 min 0 min 0,0 UV-I 0 W/m 7,7 km/h (2 Bft)
14.04.2014 02:38 8,3 C 7,2 C 79 % 1015,5 hPa 0,0 l/m 0 min 0 min 0,0 UV-I 0 W/m 12,9 km/h (3 Bft)
14.04.2014 02:40 8,3 C 7,2 C 79 % 1015,5 hPa 0,0 l/m 0 min 0 min 0,0 UV-I 0 W/m 10,3 km/h (2 Bft)
14.04.2014 02:42 8,4 C 7,2 C 78 % 1015,5 hPa 0,0 l/m 0 min 0 min 0,0 UV-I 0 W/m 12,9 km/h (3 Bft)
14.04.2014 02:44 8,5 C 7,2 C 78 % 1015,5 hPa 0,0 l/m 0 min 0 min 0,0 UV-I 0 W/m 15,4 km/h (3 Bft)
14.04.2014 02:46 8,6 C 7,2 C 78 % 1015,5 hPa 0,0 l/m 0 min 0 min 0,0 UV-I 0 W/m 7,7 km/h (2 Bft)
14.04.2014 02:48 8,6 C 7,2 C 78 % 1015,5 hPa 0,0 l/m 0 min 0 min 0,0 UV-I 0 W/m 7,7 km/h (2 Bft)
14.04.2014 02:50 8,7 C 7,8 C 78 % 1015,5 hPa 0,0 l/m 0 min 0 min 0,0 UV-I 0 W/m 7,7 km/h (2 Bft)
14.04.2014 02:52 8,7 C 7,8 C 78 % 1015,4 hPa 0,0 l/m 0 min 0 min 0,0 UV-I 0 W/m 23,2 km/h (4 Bft)
14.04.2014 02:54 8,7 C 7,8 C 77 % 1015,4 hPa 0,0 l/m 0 min 0 min 0,0 UV-I 0 W/m 23,2 km/h (4 Bft)
14.04.2014 02:56 8,8 C 7,8 C 77 % 1015,4 hPa 0,0 l/m 0 min 0 min 0,0 UV-I 0 W/m 2,6 km/h (1 Bft)
14.04.2014 02:58 8,8 C 7,8 C 77 % 1015,4 hPa 0,0 l/m 0 min 0 min 0,0 UV-I 0 W/m 10,3 km/h (2 Bft)
14.04.2014 03:00 8,8 C 7,8 C 77 % 1015,4 hPa 0,0 l/m 0 min 0 min 0,0 UV-I 0 W/m 5,1 km/h (1 Bft)
14.04.2014 03:02 8,9 C 7,8 C 77 % 1015,4 hPa 0,0 l/m 0 min 0 min 0,0 UV-I 0 W/m 18,0 km/h (3 Bft)
14.04.2014 03:06 8,9 C 7,8 C 77 % 1015,3 hPa 0,0 l/m 0 min 0 min 0,0 UV-I 0 W/m 7,7 km/h (2 Bft)
14.04.2014 03:08 8,9 C 7,8 C 77 % 1015,3 hPa 0,0 l/m 0 min 0 min 0,0 UV-I 0 W/m 2,6 km/h (1 Bft)
14.04.2014 03:10 8,9 C 7,8 C 77 % 1015,3 hPa 0,0 l/m 0 min 0 min 0,0 UV-I 0 W/m 7,7 km/h (2 Bft)
14.04.2014 03:12 8,9 C 7,8 C 78 % 1015,2 hPa 0,0 l/m 0 min 0 min 0,0 UV-I 0 W/m 10,3 km/h (2 Bft)
14.04.2014 03:14 8,9 C 7,8 C 77 % 1015,2 hPa 0,0 l/m 0 min 0 min 0,0 UV-I 0 W/m 15,4 km/h (3 Bft)
14.04.2014 03:16 8,9 C 7,8 C 78 % 1015,2 hPa 0,0 l/m 0 min 0 min 0,0 UV-I 0 W/m 12,9 km/h (3 Bft)
14.04.2014 03:18 8,9 C 7,8 C 78 % 1015,3 hPa 0,0 l/m 0 min 0 min 0,0 UV-I 0 W/m 10,3 km/h (2 Bft)
14.04.2014 03:20 8,9 C 7,8 C 78 % 1015,3 hPa 0,0 l/m 0 min 0 min 0,0 UV-I 0 W/m 10,3 km/h (2 Bft)
14.04.2014 03:22 8,9 C 7,2 C 78 % 1015,2 hPa 0,0 l/m 0 min 0 min 0,0 UV-I 0 W/m 5,1 km/h (1 Bft)
14.04.2014 03:24 8,9 C 7,2 C 78 % 1015,3 hPa 0,0 l/m 0 min 0 min 0,0 UV-I 0 W/m 7,7 km/h (2 Bft)
14.04.2014 03:26 8,8 C 7,2 C 78 % 1015,2 hPa 0,0 l/m 0 min 0 min 0,0 UV-I 0 W/m 12,9 km/h (3 Bft)
14.04.2014 03:28 8,8 C 7,2 C 78 % 1015,2 hPa 0,0 l/m 0 min 0 min 0,0 UV-I 0 W/m 12,9 km/h (3 Bft)
14.04.2014 03:30 8,8 C 7,2 C 78 % 1015,1 hPa 0,0 l/m 0 min 0 min 0,0 UV-I 0 W/m 12,9 km/h (3 Bft)
14.04.2014 03:32 8,7 C 7,2 C 78 % 1015,2 hPa 0,0 l/m 0 min 0 min 0,0 UV-I 0 W/m 7,7 km/h (2 Bft)
14.04.2014 03:34 8,7 C 7,2 C 78 % 1015,1 hPa 0,0 l/m 0 min 0 min 0,0 UV-I 0 W/m 5,1 km/h (1 Bft)
14.04.2014 03:36 8,7 C 7,2 C 79 % 1015,1 hPa 0,0 l/m 0 min 0 min 0,0 UV-I 0 W/m 12,9 km/h (3 Bft)
14.04.2014 03:38 8,7 C 7,2 C 79 % 1015,1 hPa 0,0 l/m 0 min 0 min 0,0 UV-I 0 W/m 10,3 km/h (2 Bft)
14.04.2014 03:40 8,6 C 7,2 C 79 % 1015,1 hPa 0,0 l/m 0 min 0 min 0,0 UV-I 0 W/m 10,3 km/h (2 Bft)
14.04.2014 03:42 8,6 C 7,2 C 79 % 1015,2 hPa 0,0 l/m 0 min 0 min 0,0 UV-I 0 W/m 12,9 km/h (3 Bft)
14.04.2014 03:44 8,5 C 7,2 C 80 % 1015,2 hPa 0,0 l/m 0 min 0 min 0,0 UV-I 0 W/m 10,3 km/h (2 Bft)
14.04.2014 03:46 8,5 C 7,2 C 80 % 1015,2 hPa 0,0 l/m 0 min 0 min 0,0 UV-I 0 W/m 10,3 km/h (2 Bft)
14.04.2014 03:48 8,4 C 7,2 C 80 % 1015,1 hPa 0,0 l/m 0 min 0 min 0,0 UV-I 0 W/m 12,9 km/h (3 Bft)
14.04.2014 03:50 8,4 C 6,7 C 81 % 1015,1 hPa 0,0 l/m 0 min 0 min 0,0 UV-I 0 W/m 0,0 km/h (0 Bft)
14.04.2014 03:52 8,4 C 6,7 C 81 % 1015,1 hPa 0,0 l/m 0 min 0 min 0,0 UV-I 0 W/m 20,6 km/h (4 Bft)
14.04.2014 03:54 8,4 C 6,7 C 81 % 1015,1 hPa 0,0 l/m 0 min 0 min 0,0 UV-I 0 W/m 5,1 km/h (1 Bft)
14.04.2014 03:56 8,3 C 6,7 C 81 % 1015,1 hPa 0,0 l/m 0 min 0 min 0,0 UV-I 0 W/m 10,3 km/h (2 Bft)
14.04.2014 03:58 8,3 C 7,2 C 81 % 1015,1 hPa 0,0 l/m 0 min 0 min 0,0 UV-I 0 W/m 7,7 km/h (2 Bft)
14.04.2014 04:00 8,3 C 7,2 C 81 % 1015,0 hPa 0,0 l/m 0 min 0 min 0,0 UV-I 0 W/m 12,9 km/h (3 Bft)
14.04.2014 04:02 8,4 C 7,2 C 82 % 1015,0 hPa 0,0 l/m 0 min 0 min 0,0 UV-I 0 W/m 5,1 km/h (1 Bft)
14.04.2014 04:06 8,4 C 7,2 C 82 % 1015,0 hPa 0,0 l/m 0 min 0 min 0,0 UV-I 0 W/m 7,7 km/h (2 Bft)
14.04.2014 04:08 8,4 C 7,2 C 82 % 1014,9 hPa 0,0 l/m 0 min 0 min 0,0 UV-I 0 W/m 2,6 km/h (1 Bft)
14.04.2014 04:10 8,5 C 7,2 C 82 % 1014,9 hPa 0,0 l/m 0 min 0 min 0,0 UV-I 0 W/m 7,7 km/h (2 Bft)
14.04.2014 04:12 8,5 C 7,2 C 82 % 1014,9 hPa 0,0 l/m 0 min 0 min 0,0 UV-I 0 W/m 18,0 km/h (3 Bft)
14.04.2014 04:14 8,6 C 7,2 C 82 % 1014,9 hPa 0,0 l/m 0 min 0 min 0,0 UV-I 0 W/m 18,0 km/h (3 Bft)
14.04.2014 04:16 8,6 C 7,2 C 82 % 1014,9 hPa 0,0 l/m 0 min 0 min 0,0 UV-I 0 W/m 7,7 km/h (2 Bft)
14.04.2014 04:18 8,7 C 7,2 C 82 % 1014,9 hPa 0,0 l/m 0 min 0 min 0,0 UV-I 0 W/m 15,4 km/h (3 Bft)
14.04.2014 04:20 8,7 C 7,8 C 82 % 1014,9 hPa 0,0 l/m 0 min 0 min 0,0 UV-I 0 W/m 10,3 km/h (2 Bft)
14.04.2014 04:22 8,7 C 7,8 C 82 % 1014,9 hPa 0,0 l/m 0 min 0 min 0,0 UV-I 0 W/m 5,1 km/h (1 Bft)
14.04.2014 04:24 8,7 C 7,8 C 82 % 1014,8 hPa 0,0 l/m 0 min 0 min 0,0 UV-I 0 W/m 12,9 km/h (3 Bft)
14.04.2014 04:26 8,8 C 7,8 C 82 % 1014,8 hPa 0,0 l/m 0 min 0 min 0,0 UV-I 0 W/m 12,9 km/h (3 Bft)
14.04.2014 04:28 8,8 C 7,8 C 82 % 1014,8 hPa 0,0 l/m 0 min 0 min 0,0 UV-I 0 W/m 23,2 km/h (4 Bft)
14.04.2014 04:30 8,8 C 7,8 C 82 % 1014,8 hPa 0,0 l/m 0 min 0 min 0,0 UV-I 0 W/m 10,3 km/h (2 Bft)
14.04.2014 04:32 8,8 C 7,8 C 82 % 1014,9 hPa 0,0 l/m 0 min 0 min 0,0 UV-I 0 W/m 10,3 km/h (2 Bft)
14.04.2014 04:34 8,8 C 7,8 C 82 % 1014,9 hPa 0,0 l/m 0 min 0 min 0,0 UV-I 0 W/m 15,4 km/h (3 Bft)
14.04.2014 04:36 8,8 C 7,8 C 83 % 1014,8 hPa 0,0 l/m 0 min 0 min 0,0 UV-I 0 W/m 7,7 km/h (2 Bft)
14.04.2014 04:38 8,8 C 7,8 C 83 % 1014,9 hPa 0,0 l/m 0 min 0 min 0,0 UV-I 0 W/m 12,9 km/h (3 Bft)
14.04.2014 04:40 8,9 C 7,8 C 83 % 1014,9 hPa 0,0 l/m 0 min 0 min 0,0 UV-I 0 W/m 15,4 km/h (3 Bft)
14.04.2014 04:42 8,9 C 7,8 C 83 % 1014,9 hPa 0,0 l/m 0 min 0 min 0,0 UV-I 0 W/m 18,0 km/h (3 Bft)
14.04.2014 04:44 8,9 C 7,8 C 83 % 1014,9 hPa 0,0 l/m 0 min 0 min 0,0 UV-I 0 W/m 7,7 km/h (2 Bft)
14.04.2014 04:46 8,9 C 7,8 C 83 % 1014,8 hPa 0,0 l/m 0 min 0 min 0,0 UV-I 0 W/m 12,9 km/h (3 Bft)
14.04.2014 04:48 8,9 C 7,8 C 83 % 1014,8 hPa 0,0 l/m 0 min 0 min 0,0 UV-I 0 W/m 12,9 km/h (3 Bft)
14.04.2014 04:50 8,9 C 7,8 C 83 % 1014,8 hPa 0,0 l/m 0 min 0 min 0,0 UV-I 0 W/m 12,9 km/h (3 Bft)
14.04.2014 04:52 8,9 C 7,8 C 83 % 1014,8 hPa 0,0 l/m 0 min 0 min 0,0 UV-I 0 W/m 23,2 km/h (4 Bft)
14.04.2014 04:54 8,9 C 7,8 C 83 % 1014,7 hPa 0,0 l/m 0 min 0 min 0,0 UV-I 0 W/m 5,1 km/h (1 Bft)
14.04.2014 04:56 8,9 C 7,8 C 83 % 1014,8 hPa 0,0 l/m 0 min 0 min 0,0 UV-I 0 W/m 15,4 km/h (3 Bft)
14.04.2014 04:58 8,9 C 7,8 C 83 % 1014,8 hPa 0,0 l/m 0 min 0 min 0,0 UV-I 0 W/m 15,4 km/h (3 Bft)
14.04.2014 05:00 8,9 C 7,8 C 83 % 1014,8 hPa 0,0 l/m 0 min 0 min 0,0 UV-I 0 W/m 23,2 km/h (4 Bft)
14.04.2014 05:02 8,9 C 7,8 C 83 % 1014,9 hPa 0,0 l/m 0 min 0 min 0,0 UV-I 0 W/m 15,4 km/h (3 Bft)
14.04.2014 05:06 8,9 C 7,8 C 83 % 1014,8 hPa 0,0 l/m 0 min 0 min 0,0 UV-I 0 W/m 10,3 km/h (2 Bft)
14.04.2014 05:08 8,9 C 7,8 C 83 % 1014,9 hPa 0,0 l/m 0 min 0 min 0,0 UV-I 0 W/m 12,9 km/h (3 Bft)
14.04.2014 05:10 8,9 C 7,8 C 83 % 1014,8 hPa 0,0 l/m 0 min 0 min 0,0 UV-I 0 W/m 2,6 km/h (1 Bft)
14.04.2014 05:12 9,0 C 7,8 C 83 % 1014,8 hPa 0,0 l/m 0 min 0 min 0,0 UV-I 0 W/m 0,0 km/h (0 Bft)
14.04.2014 05:14 8,9 C 7,8 C 83 % 1014,8 hPa 0,0 l/m 0 min 0 min 0,0 UV-I 0 W/m 5,1 km/h (1 Bft)
14.04.2014 05:16 8,9 C 7,8 C 84 % 1014,8 hPa 0,0 l/m 0 min 0 min 0,0 UV-I 0 W/m 5,1 km/h (1 Bft)
14.04.2014 05:18 8,9 C 7,8 C 84 % 1014,7 hPa 0,0 l/m 0 min 0 min 0,0 UV-I 0 W/m 7,7 km/h (2 Bft)
14.04.2014 05:20 8,9 C 7,8 C 84 % 1014,8 hPa 0,0 l/m 0 min 0 min 0,0 UV-I 0 W/m 10,3 km/h (2 Bft)
14.04.2014 05:22 8,9 C 7,8 C 84 % 1014,8 hPa 0,0 l/m 0 min 0 min 0,0 UV-I 0 W/m 10,3 km/h (2 Bft)
14.04.2014 05:24 8,9 C 7,8 C 84 % 1014,7 hPa 0,0 l/m 0 min 0 min 0,0 UV-I 0 W/m 7,7 km/h (2 Bft)
14.04.2014 05:26 8,9 C 7,8 C 84 % 1014,8 hPa 0,0 l/m 0 min 0 min 0,0 UV-I 0 W/m 5,1 km/h (1 Bft)
14.04.2014 05:28 8,9 C 7,8 C 84 % 1014,8 hPa 0,0 l/m 0 min 0 min 0,0 UV-I 0 W/m 12,9 km/h (3 Bft)
14.04.2014 05:30 8,9 C 7,8 C 84 % 1014,7 hPa 0,0 l/m 0 min 0 min 0,0 UV-I 0 W/m 2,6 km/h (1 Bft)
14.04.2014 05:32 8,9 C 7,8 C 84 % 1014,8 hPa 0,0 l/m 0 min 0 min 0,0 UV-I 0 W/m 12,9 km/h (3 Bft)
14.04.2014 05:34 8,9 C 7,8 C 84 % 1014,7 hPa 0,0 l/m 0 min 0 min 0,0 UV-I 0 W/m 15,4 km/h (3 Bft)
14.04.2014 05:36 8,9 C 7,8 C 84 % 1014,7 hPa 0,0 l/m 0 min 0 min 0,0 UV-I 0 W/m 7,7 km/h (2 Bft)
14.04.2014 05:38 8,9 C 7,8 C 84 % 1014,7 hPa 0,0 l/m 0 min 0 min 0,0 UV-I 0 W/m 15,4 km/h (3 Bft)
14.04.2014 05:40 8,9 C 7,8 C 84 % 1014,7 hPa 0,0 l/m 0 min 0 min 0,0 UV-I 0 W/m 5,1 km/h (1 Bft)
14.04.2014 05:42 8,9 C 7,8 C 84 % 1014,6 hPa 0,0 l/m 0 min 0 min 0,0 UV-I 0 W/m 2,6 km/h (1 Bft)
14.04.2014 05:44 8,9 C 7,8 C 84 % 1014,7 hPa 0,0 l/m 0 min 0 min 0,0 UV-I 0 W/m 7,7 km/h (2 Bft)
14.04.2014 05:46 8,9 C 7,8 C 84 % 1014,7 hPa 0,0 l/m 0 min 0 min 0,0 UV-I 0 W/m 10,3 km/h (2 Bft)
14.04.2014 05:48 8,9 C 7,8 C 84 % 1014,8 hPa 0,0 l/m 0 min 0 min 0,0 UV-I 0 W/m 20,6 km/h (4 Bft)
14.04.2014 05:50 8,9 C 7,8 C 84 % 1014,7 hPa 0,0 l/m 0 min 0 min 0,0 UV-I 0 W/m 12,9 km/h (3 Bft)
14.04.2014 05:52 8,9 C 7,8 C 84 % 1014,8 hPa 0,0 l/m 0 min 0 min 0,0 UV-I 0 W/m 7,7 km/h (2 Bft)
14.04.2014 05:54 8,9 C 7,8 C 85 % 1014,6 hPa 0,0 l/m 0 min 0 min 0,0 UV-I 0 W/m 5,1 km/h (1 Bft)
14.04.2014 05:56 8,9 C 7,8 C 85 % 1014,7 hPa 0,0 l/m 0 min 0 min 0,0 UV-I 0 W/m 12,9 km/h (3 Bft)
14.04.2014 05:58 8,9 C 7,8 C 85 % 1014,7 hPa 0,0 l/m 0 min 0 min 0,0 UV-I 0 W/m 7,7 km/h (2 Bft)
14.04.2014 06:00 8,9 C 7,8 C 85 % 1014,7 hPa 0,0 l/m 0 min 0 min 0,0 UV-I 0 W/m 5,1 km/h (1 Bft)
14.04.2014 06:02 8,8 C 7,8 C 85 % 1014,7 hPa 0,0 l/m 0 min 0 min 0,0 UV-I 0 W/m 0,0 km/h (0 Bft)
14.04.2014 06:06 8,8 C 7,8 C 85 % 1014,8 hPa 0,0 l/m 0 min 0 min 0,0 UV-I 0 W/m 15,4 km/h (3 Bft)
14.04.2014 06:08 8,8 C 7,8 C 85 % 1014,7 hPa 0,0 l/m 0 min 0 min 0,0 UV-I 0 W/m 5,1 km/h (1 Bft)
14.04.2014 06:10 8,8 C 7,8 C 85 % 1014,6 hPa 0,0 l/m 0 min 0 min 0,0 UV-I 0 W/m 15,4 km/h (3 Bft)
14.04.2014 06:12 8,8 C 7,8 C 85 % 1014,7 hPa 0,0 l/m 0 min 0 min 0,0 UV-I 0 W/m 20,6 km/h (4 Bft)
14.04.2014 06:14 8,8 C 7,8 C 85 % 1014,7 hPa 0,0 l/m 0 min 0 min 0,0 UV-I 0 W/m 10,3 km/h (2 Bft)
14.04.2014 06:16 8,8 C 7,8 C 85 % 1014,7 hPa 0,0 l/m 0 min 0 min 0,0 UV-I 0 W/m 2,6 km/h (1 Bft)
14.04.2014 06:18 8,8 C 7,8 C 85 % 1014,7 hPa 0,0 l/m 0 min 0 min 0,0 UV-I 0 W/m 0,0 km/h (0 Bft)
14.04.2014 06:20 8,8 C 7,8 C 85 % 1014,7 hPa 0,0 l/m 0 min 0 min 0,0 UV-I 0 W/m 2,6 km/h (1 Bft)
14.04.2014 06:22 8,8 C 7,8 C 85 % 1014,8 hPa 0,0 l/m 0 min 0 min 0,0 UV-I 0 W/m 15,4 km/h (3 Bft)
14.04.2014 06:24 8,8 C 7,8 C 85 % 1014,8 hPa 0,0 l/m 0 min 0 min 0,0 UV-I 0 W/m 12,9 km/h (3 Bft)
14.04.2014 06:26 8,7 C 7,8 C 86 % 1014,8 hPa 0,0 l/m 0 min 0 min 0,0 UV-I 0 W/m 2,6 km/h (1 Bft)
14.04.2014 06:28 8,7 C 7,2 C 86 % 1014,8 hPa 0,0 l/m 0 min 0 min 0,0 UV-I 0 W/m 0,0 km/h (0 Bft)
14.04.2014 06:30 8,6 C 7,2 C 86 % 1014,8 hPa 0,0 l/m 0 min 0 min 0,0 UV-I 0 W/m 0,0 km/h (0 Bft)
14.04.2014 06:32 8,6 C 7,2 C 86 % 1014,8 hPa 0,0 l/m 0 min 0 min 0,0 UV-I 0 W/m 0,0 km/h (0 Bft)
14.04.2014 06:34 8,6 C 7,2 C 86 % 1014,9 hPa 0,0 l/m 0 min 0 min 0,0 UV-I 0 W/m 5,1 km/h (1 Bft)
14.04.2014 06:36 8,5 C 7,2 C 86 % 1014,9 hPa 0,0 l/m 0 min 0 min 0,0 UV-I 0 W/m 0,0 km/h (0 Bft)
14.04.2014 06:38 8,4 C 7,2 C 87 % 1014,9 hPa 0,0 l/m 0 min 0 min 0,0 UV-I 0 W/m 5,1 km/h (1 Bft)
14.04.2014 06:40 8,4 C 7,2 C 87 % 1014,9 hPa 0,0 l/m 0 min 0 min 0,0 UV-I 0 W/m 7,7 km/h (2 Bft)
14.04.2014 06:42 8,4 C 7,2 C 87 % 1014,9 hPa 0,0 l/m 0 min 0 min 0,0 UV-I 5 W/m 12,9 km/h (3 Bft)
14.04.2014 06:44 8,3 C 6,7 C 87 % 1014,9 hPa 0,0 l/m 0 min 0 min 0,0 UV-I 5 W/m 0,0 km/h (0 Bft)
14.04.2014 06:46 8,3 C 6,7 C 87 % 1014,9 hPa 0,0 l/m 0 min 0 min 0,0 UV-I 5 W/m 0,0 km/h (0 Bft)
14.04.2014 06:48 8,2 C 6,7 C 87 % 1015,0 hPa 0,0 l/m 0 min 0 min 0,0 UV-I 7 W/m 5,1 km/h (1 Bft)
14.04.2014 06:50 8,2 C 6,7 C 87 % 1015,0 hPa 0,0 l/m 0 min 0 min 0,0 UV-I 7 W/m 2,6 km/h (1 Bft)
14.04.2014 06:52 8,2 C 6,7 C 87 % 1015,1 hPa 0,0 l/m 0 min 0 min 0,0 UV-I 14 W/m 0,0 km/h (0 Bft)
14.04.2014 06:54 8,2 C 6,7 C 88 % 1015,0 hPa 0,0 l/m 0 min 0 min 0,0 UV-I 19 W/m 0,0 km/h (0 Bft)
14.04.2014 06:56 8,2 C 7,2 C 88 % 1015,0 hPa 0,0 l/m 0 min 0 min 0,0 UV-I 16 W/m 5,1 km/h (1 Bft)
14.04.2014 06:58 8,3 C 7,2 C 88 % 1015,0 hPa 0,0 l/m 0 min 0 min 0,0 UV-I 12 W/m 2,6 km/h (1 Bft)
14.04.2014 07:00 8,3 C 7,2 C 88 % 1015,1 hPa 0,0 l/m 0 min 0 min 0,0 UV-I 16 W/m 5,1 km/h (1 Bft)
14.04.2014 07:02 8,3 C 7,2 C 88 % 1015,0 hPa 0,0 l/m 0 min 0 min 0,0 UV-I 14 W/m 2,6 km/h (1 Bft)
14.04.2014 07:06 8,4 C 7,2 C 88 % 1015,1 hPa 0,0 l/m 0 min 0 min 0,0 UV-I 21 W/m 0,0 km/h (0 Bft)
14.04.2014 07:08 8,4 C 7,2 C 87 % 1015,2 hPa 0,0 l/m 0 min 0 min 0,0 UV-I 25 W/m 0,0 km/h (0 Bft)
14.04.2014 07:10 8,5 C 7,2 C 87 % 1015,2 hPa 0,0 l/m 0 min 0 min 0,0 UV-I 23 W/m 0,0 km/h (0 Bft)
14.04.2014 07:12 8,5 C 7,2 C 87 % 1015,2 hPa 0,0 l/m 0 min 0 min 0,0 UV-I 23 W/m 0,0 km/h (0 Bft)
14.04.2014 07:14 8,6 C 7,8 C 87 % 1015,2 hPa 0,0 l/m 0 min 0 min 0,0 UV-I 23 W/m 2,6 km/h (1 Bft)
14.04.2014 07:16 8,6 C 7,8 C 87 % 1015,3 hPa 0,0 l/m 0 min 0 min 0,0 UV-I 21 W/m 0,0 km/h (0 Bft)
14.04.2014 07:18 8,7 C 7,8 C 86 % 1015,3 hPa 0,0 l/m 0 min 0 min 0,0 UV-I 28 W/m 2,6 km/h (1 Bft)
14.04.2014 07:20 8,7 C 7,8 C 86 % 1015,3 hPa 0,0 l/m 0 min 0 min 0,0 UV-I 26 W/m 15,4 km/h (3 Bft)
14.04.2014 07:22 8,8 C 7,8 C 86 % 1015,3 hPa 0,0 l/m 0 min 0 min 0,0 UV-I 32 W/m 5,1 km/h (1 Bft)
14.04.2014 07:24 8,8 C 7,8 C 86 % 1015,3 hPa 0,0 l/m 0 min 0 min 0,0 UV-I 40 W/m 5,1 km/h (1 Bft)
14.04.2014 07:26 8,8 C 7,8 C 85 % 1015,3 hPa 0,0 l/m 0 min 0 min 0,0 UV-I 42 W/m 10,3 km/h (2 Bft)
14.04.2014 07:28 8,9 C 7,8 C 85 % 1015,4 hPa 0,0 l/m 0 min 0 min 0,0 UV-I 44 W/m 12,9 km/h (3 Bft)
14.04.2014 07:30 9,0 C 7,8 C 84 % 1015,4 hPa 0,0 l/m 0 min 0 min 0,0 UV-I 28 W/m 12,9 km/h (3 Bft)
14.04.2014 07:32 9,0 C 7,8 C 83 % 1015,4 hPa 0,0 l/m 0 min 0 min 0,0 UV-I 23 W/m 5,1 km/h (1 Bft)
14.04.2014 07:34 9,1 C 7,8 C 83 % 1015,4 hPa 0,0 l/m 0 min 0 min 0,0 UV-I 18 W/m 10,3 km/h (2 Bft)
14.04.2014 07:36 9,1 C 7,8 C 83 % 1015,5 hPa 0,0 l/m 0 min 0 min 0,0 UV-I 21 W/m 18,0 km/h (3 Bft)
14.04.2014 07:38 9,1 C 8,3 C 81 % 1015,5 hPa 0,0 l/m 0 min 2 min 0,0 UV-I 28 W/m 18,0 km/h (3 Bft)
14.04.2014 07:40 9,1 C 7,8 C 81 % 1015,5 hPa 0,0 l/m 0 min 2 min 0,0 UV-I 30 W/m 15,4 km/h (3 Bft)
14.04.2014 07:42 9,2 C 7,8 C 81 % 1015,6 hPa 0,0 l/m 0 min 0 min 0,0 UV-I 30 W/m 15,4 km/h (3 Bft)
14.04.2014 07:44 9,2 C 7,8 C 80 % 1015,7 hPa 0,0 l/m 0 min 0 min 0,0 UV-I 32 W/m 18,0 km/h (3 Bft)
14.04.2014 07:46 9,2 C 8,3 C 79 % 1015,7 hPa 0,0 l/m 0 min 0 min 0,0 UV-I 51 W/m 23,2 km/h (4 Bft)
14.04.2014 07:48 9,1 C 8,3 C 79 % 1015,8 hPa 0,0 l/m 0 min 0 min 0,0 UV-I 67 W/m 18,0 km/h (3 Bft)
14.04.2014 07:50 9,1 C 8,3 C 78 % 1015,7 hPa 0,0 l/m 0 min 0 min 0,0 UV-I 70 W/m 20,6 km/h (4 Bft)
14.04.2014 07:52 9,1 C 8,3 C 77 % 1015,9 hPa 0,0 l/m 0 min 0 min 0,0 UV-I 63 W/m 30,9 km/h (5 Bft)
14.04.2014 07:54 9,1 C 8,3 C 76 % 1015,8 hPa 0,0 l/m 0 min 0 min 0,0 UV-I 60 W/m 28,3 km/h (4 Bft)
14.04.2014 07:56 9,1 C 7,8 C 76 % 1015,9 hPa 0,0 l/m 0 min 0 min 0,0 UV-I 67 W/m 20,6 km/h (4 Bft)
14.04.2014 07:58 9,1 C 7,8 C 77 % 1015,9 hPa 0,0 l/m 0 min 0 min 0,0 UV-I 70 W/m 28,3 km/h (4 Bft)
14.04.2014 08:00 9,0 C 7,8 C 77 % 1015,9 hPa 0,0 l/m 2 min 0 min 0,0 UV-I 109 W/m 15,4 km/h (3 Bft)
14.04.2014 08:02 9,0 C 7,8 C 77 % 1016,0 hPa 0,0 l/m 0 min 0 min 0,0 UV-I 104 W/m 10,3 km/h (2 Bft)
14.04.2014 08:06 9,0 C 8,3 C 76 % 1016,1 hPa 0,0 l/m 0 min 0 min 0,0 UV-I 70 W/m 18,0 km/h (3 Bft)
14.04.2014 08:08 9,0 C 8,3 C 76 % 1016,1 hPa 0,0 l/m 0 min 0 min 0,0 UV-I 77 W/m 23,2 km/h (4 Bft)
14.04.2014 08:10 9,0 C 8,3 C 76 % 1016,2 hPa 0,0 l/m 0 min 0 min 0,0 UV-I 56 W/m 18,0 km/h (3 Bft)
14.04.2014 08:12 9,0 C 8,3 C 76 % 1016,2 hPa 0,0 l/m 0 min 0 min 0,0 UV-I 53 W/m 18,0 km/h (3 Bft)
14.04.2014 08:14 9,0 C 8,3 C 75 % 1016,2 hPa 0,0 l/m 0 min 0 min 0,0 UV-I 54 W/m 20,6 km/h (4 Bft)
14.04.2014 08:16 8,9 C 7,8 C 75 % 1016,2 hPa 0,0 l/m 0 min 0 min 0,0 UV-I 49 W/m 10,3 km/h (2 Bft)
14.04.2014 08:18 8,9 C 7,8 C 76 % 1016,3 hPa 0,0 l/m 0 min 0 min 0,0 UV-I 47 W/m 10,3 km/h (2 Bft)
14.04.2014 08:20 8,9 C 7,8 C 76 % 1016,4 hPa 0,0 l/m 0 min 0 min 0,0 UV-I 56 W/m 15,4 km/h (3 Bft)
14.04.2014 08:22 8,9 C 7,8 C 76 % 1016,4 hPa 0,0 l/m 0 min 0 min 0,0 UV-I 72 W/m 5,1 km/h (1 Bft)
14.04.2014 08:24 8,9 C 7,8 C 76 % 1016,4 hPa 0,0 l/m 0 min 0 min 0,0 UV-I 74 W/m 7,7 km/h (2 Bft)
14.04.2014 08:26 8,9 C 7,8 C 76 % 1016,4 hPa 0,0 l/m 0 min 0 min 0,0 UV-I 72 W/m 7,7 km/h (2 Bft)
14.04.2014 08:28 8,9 C 7,8 C 76 % 1016,5 hPa 0,0 l/m 0 min 2 min 0,0 UV-I 72 W/m 18,0 km/h (3 Bft)
14.04.2014 08:30 8,8 C 7,8 C 76 % 1016,5 hPa 0,0 l/m 0 min 0 min 0,0 UV-I 81 W/m 18,0 km/h (3 Bft)
14.04.2014 08:32 8,8 C 7,8 C 77 % 1016,5 hPa 0,0 l/m 0 min 0 min 0,0 UV-I 81 W/m 0,0 km/h (0 Bft)
14.04.2014 08:34 8,8 C 7,8 C 77 % 1016,5 hPa 0,0 l/m 0 min 0 min 0,0 UV-I 74 W/m 5,1 km/h (1 Bft)
14.04.2014 08:36 8,7 C 7,8 C 77 % 1016,5 hPa 0,0 l/m 0 min 0 min 0,0 UV-I 81 W/m 7,7 km/h (2 Bft)
14.04.2014 08:38 8,7 C 7,8 C 76 % 1016,5 hPa 0,0 l/m 2 min 0 min 0,0 UV-I 225 W/m 12,9 km/h (3 Bft)
14.04.2014 08:40 8,7 C 7,8 C 77 % 1016,5 hPa 0,0 l/m 2 min 0 min 0,0 UV-I 229 W/m 18,0 km/h (3 Bft)
14.04.2014 08:42 8,8 C 7,8 C 77 % 1016,5 hPa 0,0 l/m 2 min 0 min 0,0 UV-I 230 W/m 12,9 km/h (3 Bft)
14.04.2014 08:44 8,9 C 7,8 C 77 % 1016,5 hPa 0,0 l/m 2 min 0 min 0,0 UV-I 241 W/m 15,4 km/h (3 Bft)
14.04.2014 08:46 8,9 C 7,8 C 77 % 1016,5 hPa 0,0 l/m 2 min 0 min 0,0 UV-I 243 W/m 10,3 km/h (2 Bft)
14.04.2014 08:48 9,0 C 7,8 C 76 % 1016,5 hPa 0,0 l/m 2 min 0 min 0,0 UV-I 244 W/m 15,4 km/h (3 Bft)
14.04.2014 08:50 9,1 C 7,8 C 76 % 1016,6 hPa 0,0 l/m 2 min 0 min 0,0 UV-I 253 W/m 33,5 km/h (5 Bft)
14.04.2014 08:52 9,1 C 7,8 C 76 % 1016,5 hPa 0,0 l/m 2 min 0 min 0,0 UV-I 258 W/m 20,6 km/h (4 Bft)
14.04.2014 08:54 9,2 C 7,8 C 76 % 1016,6 hPa 0,0 l/m 2 min 0 min 0,0 UV-I 271 W/m 25,7 km/h (4 Bft)
14.04.2014 08:56 9,2 C 7,8 C 76 % 1016,6 hPa 0,0 l/m 2 min 0 min 0,0 UV-I 279 W/m 28,3 km/h (4 Bft)
14.04.2014 08:58 9,3 C 7,8 C 76 % 1016,6 hPa 0,0 l/m 2 min 0 min 0,0 UV-I 285 W/m 15,4 km/h (3 Bft)
14.04.2014 09:00 9,3 C 8,3 C 76 % 1016,6 hPa 0,0 l/m 2 min 0 min 0,0 UV-I 288 W/m 18,0 km/h (3 Bft)
14.04.2014 09:02 9,4 C 8,3 C 76 % 1016,7 hPa 0,0 l/m 2 min 0 min 0,0 UV-I 302 W/m 20,6 km/h (4 Bft)
14.04.2014 09:06 9,4 C 8,3 C 76 % 1016,7 hPa 0,0 l/m 2 min 0 min 0,0 UV-I 232 W/m 18,0 km/h (3 Bft)
14.04.2014 09:08 9,4 C 8,3 C 76 % 1016,7 hPa 0,0 l/m 2 min 0 min 0,0 UV-I 211 W/m 12,9 km/h (3 Bft)
14.04.2014 09:10 9,4 C 8,3 C 76 % 1016,8 hPa 0,0 l/m 2 min 0 min 0,0 UV-I 330 W/m 15,4 km/h (3 Bft)
14.04.2014 09:12 9,5 C 8,3 C 76 % 1016,7 hPa 0,0 l/m 0 min 0 min 0,0 UV-I 120 W/m 12,9 km/h (3 Bft)
14.04.2014 09:14 9,5 C 8,3 C 76 % 1016,8 hPa 0,0 l/m 2 min 0 min 0,0 UV-I 283 W/m 7,7 km/h (2 Bft)
14.04.2014 09:16 9,5 C 8,9 C 76 % 1016,9 hPa 0,0 l/m 0 min 0 min 0,0 UV-I 167 W/m 7,7 km/h (2 Bft)
14.04.2014 09:18 9,6 C 8,9 C 76 % 1016,8 hPa 0,0 l/m 2 min 0 min 0,0 UV-I 232 W/m 18,0 km/h (3 Bft)
14.04.2014 09:20 9,6 C 8,9 C 76 % 1016,9 hPa 0,0 l/m 0 min 0 min 0,0 UV-I 185 W/m 7,7 km/h (2 Bft)
14.04.2014 09:22 9,7 C 8,9 C 76 % 1016,9 hPa 0,0 l/m 0 min 0 min 0,0 UV-I 220 W/m 20,6 km/h (4 Bft)
14.04.2014 09:24 9,7 C 9,4 C 76 % 1016,9 hPa 0,0 l/m 0 min 0 min 0,0 UV-I 207 W/m 23,2 km/h (4 Bft)
14.04.2014 09:26 9,7 C 9,4 C 76 % 1017,0 hPa 0,0 l/m 2 min 0 min 0,0 UV-I 239 W/m 23,2 km/h (4 Bft)
14.04.2014 09:28 9,7 C 9,4 C 75 % 1017,0 hPa 0,0 l/m 2 min 0 min 0,0 UV-I 276 W/m 25,7 km/h (4 Bft)
14.04.2014 09:30 9,9 C 9,4 C 76 % 1017,0 hPa 0,0 l/m 2 min 0 min 0,0 UV-I 441 W/m 5,1 km/h (1 Bft)
14.04.2014 09:32 10,1 C 10,0 C 76 % 1017,0 hPa 0,0 l/m 0 min 0 min 0,0 UV-I 206 W/m 25,7 km/h (4 Bft)
14.04.2014 09:34 10,1 C 10,0 C 74 % 1017,0 hPa 0,0 l/m 0 min 0 min 0,0 UV-I 220 W/m 12,9 km/h (3 Bft)
14.04.2014 09:36 10,1 C 10,0 C 74 % 1017,1 hPa 0,0 l/m 2 min 0 min 0,0 UV-I 272 W/m 12,9 km/h (3 Bft)
14.04.2014 09:38 10,1 C 10,0 C 74 % 1017,1 hPa 0,0 l/m 0 min 0 min 0,0 UV-I 193 W/m 5,1 km/h (1 Bft)
14.04.2014 09:40 10,1 C 10,0 C 75 % 1017,1 hPa 0,0 l/m 0 min 0 min 0,0 UV-I 135 W/m 12,9 km/h (3 Bft)
14.04.2014 09:42 10,0 C 10,0 C 74 % 1017,2 hPa 0,0 l/m 0 min 0 min 0,0 UV-I 195 W/m 15,4 km/h (3 Bft)
14.04.2014 09:44 9,9 C 9,4 C 74 % 1017,2 hPa 0,0 l/m 0 min 0 min 0,0 UV-I 146 W/m 10,3 km/h (2 Bft)
14.04.2014 09:46 9,9 C 9,4 C 74 % 1017,2 hPa 0,0 l/m 0 min 0 min 0,0 UV-I 155 W/m 23,2 km/h (4 Bft)
14.04.2014 09:48 9,8 C 9,4 C 75 % 1017,2 hPa 0,0 l/m 0 min 0 min 0,0 UV-I 137 W/m 18,0 km/h (3 Bft)
14.04.2014 09:50 9,8 C 9,4 C 75 % 1017,2 hPa 0,0 l/m 0 min 0 min 0,0 UV-I 121 W/m 10,3 km/h (2 Bft)
14.04.2014 09:52 9,8 C 9,4 C 75 % 1017,3 hPa 0,0 l/m 0 min 0 min 0,0 UV-I 155 W/m 15,4 km/h (3 Bft)
14.04.2014 09:54 9,8 C 9,4 C 75 % 1017,3 hPa 0,0 l/m 0 min 0 min 0,0 UV-I 243 W/m 23,2 km/h (4 Bft)
14.04.2014 09:56 9,9 C 10,0 C 75 % 1017,3 hPa 0,0 l/m 2 min 0 min 0,0 UV-I 272 W/m 28,3 km/h (4 Bft)
14.04.2014 09:58 10,0 C 10,0 C 75 % 1017,2 hPa 0,0 l/m 2 min 0 min 0,0 UV-I 272 W/m 15,4 km/h (3 Bft)
14.04.2014 10:00 10,0 C 9,4 C 74 % 1017,3 hPa 0,0 l/m 0 min 0 min 0,0 UV-I 127 W/m 12,9 km/h (3 Bft)
14.04.2014 10:02 10,0 C 9,4 C 74 % 1017,3 hPa 0,0 l/m 0 min 0 min 0,0 UV-I 146 W/m 15,4 km/h (3 Bft)
14.04.2014 10:06 10,2 C 10,0 C 74 % 1017,3 hPa 0,0 l/m 2 min 0 min 0,0 UV-I 279 W/m 10,3 km/h (2 Bft)
14.04.2014 10:08 10,2 C 10,0 C 73 % 1017,3 hPa 0,0 l/m 0 min 0 min 0,0 UV-I 232 W/m 15,4 km/h (3 Bft)
14.04.2014 10:10 10,3 C 10,0 C 73 % 1017,3 hPa 0,0 l/m 0 min 0 min 0,7 UV-I 232 W/m 18,0 km/h (3 Bft)
14.04.2014 10:12 10,4 C 10,0 C 72 % 1017,3 hPa 0,0 l/m 0 min 0 min 0,7 UV-I 232 W/m 18,0 km/h (3 Bft)
14.04.2014 10:14 10,5 C 10,0 C 71 % 1017,3 hPa 0,0 l/m 0 min 0 min 0,8 UV-I 178 W/m 10,3 km/h (2 Bft)
14.04.2014 10:16 10,6 C 10,0 C 71 % 1017,3 hPa 0,0 l/m 0 min 0 min 0,5 UV-I 178 W/m 28,3 km/h (4 Bft)
14.04.2014 10:18 10,7 C 10,6 C 70 % 1017,3 hPa 0,0 l/m 2 min 0 min 0,9 UV-I 534 W/m 12,9 km/h (3 Bft)
14.04.2014 10:20 10,9 C 10,6 C 69 % 1017,3 hPa 0,0 l/m 2 min 0 min 1,0 UV-I 628 W/m 12,9 km/h (3 Bft)
14.04.2014 10:22 11,2 C 11,1 C 70 % 1017,3 hPa 0,0 l/m 2 min 0 min 1,0 UV-I 628 W/m 15,4 km/h (3 Bft)
14.04.2014 10:24 11,4 C 11,1 C 69 % 1017,3 hPa 0,0 l/m 0 min 0 min 0,0 UV-I 204 W/m 18,0 km/h (3 Bft)
14.04.2014 10:26 11,3 C 11,1 C 68 % 1017,3 hPa 0,0 l/m 2 min 0 min 0,6 UV-I 304 W/m 23,2 km/h (4 Bft)
14.04.2014 10:28 11,1 C 11,1 C 68 % 1017,3 hPa 0,0 l/m 0 min 0 min 1,1 UV-I 285 W/m 18,0 km/h (3 Bft)
14.04.2014 10:30 11,1 C 11,1 C 69 % 1017,4 hPa 0,0 l/m 2 min 0 min 0,0 UV-I 355 W/m 18,0 km/h (3 Bft)
14.04.2014 10:32 11,3 C 11,1 C 69 % 1017,3 hPa 0,0 l/m 0 min 0 min 0,0 UV-I 176 W/m 23,2 km/h (4 Bft)
14.04.2014 10:34 11,1 C 10,6 C 67 % 1017,3 hPa 0,0 l/m 0 min 0 min 0,0 UV-I 116 W/m 30,9 km/h (5 Bft)
14.04.2014 10:36 11,0 C 10,6 C 69 % 1017,3 hPa 0,0 l/m 0 min 0 min 0,0 UV-I 192 W/m 15,4 km/h (3 Bft)
14.04.2014 10:38 10,9 C 10,6 C 68 % 1017,3 hPa 0,0 l/m 0 min 0 min 0,0 UV-I 260 W/m 23,2 km/h (4 Bft)
14.04.2014 10:40 10,8 C 10,6 C 69 % 1017,4 hPa 0,0 l/m 0 min 0 min 0,0 UV-I 206 W/m 15,4 km/h (3 Bft)
14.04.2014 10:42 10,8 C 10,6 C 68 % 1017,4 hPa 0,0 l/m 0 min 0 min 0,0 UV-I 195 W/m 23,2 km/h (4 Bft)
14.04.2014 10:44 10,7 C 10,6 C 69 % 1017,4 hPa 0,0 l/m 0 min 0 min 0,0 UV-I 185 W/m 12,9 km/h (3 Bft)
14.04.2014 10:46 10,7 C 10,0 C 69 % 1017,5 hPa 0,0 l/m 0 min 0 min 0,0 UV-I 137 W/m 18,0 km/h (3 Bft)
14.04.2014 10:48 10,6 C 10,0 C 69 % 1017,5 hPa 0,0 l/m 0 min 0 min 0,5 UV-I 185 W/m 20,6 km/h (4 Bft)
14.04.2014 10:50 10,7 C 10,0 C 69 % 1017,5 hPa 0,0 l/m 0 min 0 min 1,3 UV-I 185 W/m 18,0 km/h (3 Bft)
14.04.2014 10:52 10,9 C 10,6 C 69 % 1017,4 hPa 0,0 l/m 2 min 0 min 1,3 UV-I 582 W/m 41,2 km/h (6 Bft)
14.04.2014 10:54 11,1 C 10,6 C 68 % 1017,4 hPa 0,0 l/m 2 min 0 min 1,4 UV-I 591 W/m 38,6 km/h (5 Bft)
14.04.2014 10:56 11,3 C 11,1 C 68 % 1017,4 hPa 0,0 l/m 2 min 0 min 1,4 UV-I 605 W/m 23,2 km/h (4 Bft)
14.04.2014 10:58 11,6 C 11,7 C 68 % 1017,5 hPa 0,0 l/m 0 min 0 min 0,6 UV-I 265 W/m 12,9 km/h (3 Bft)
14.04.2014 11:00 11,8 C 11,7 C 68 % 1017,5 hPa 0,0 l/m 0 min 0 min 0,7 UV-I 265 W/m 15,4 km/h (3 Bft)
14.04.2014 11:02 11,9 C 11,7 C 66 % 1017,6 hPa 0,0 l/m 0 min 0 min 0,6 UV-I 265 W/m 23,2 km/h (4 Bft)
14.04.2014 11:06 11,9 C 12,2 C 67 % 1017,5 hPa 0,0 l/m 2 min 0 min 1,6 UV-I 700 W/m 18,0 km/h (3 Bft)
14.04.2014 11:08 11,9 C 11,7 C 66 % 1017,6 hPa 0,0 l/m 2 min 0 min 0,7 UV-I 735 W/m 10,3 km/h (2 Bft)
14.04.2014 11:10 12,0 C 12,2 C 66 % 1017,5 hPa 0,0 l/m 2 min 0 min 1,2 UV-I 735 W/m 7,7 km/h (2 Bft)
14.04.2014 11:12 12,1 C 12,2 C 66 % 1017,6 hPa 0,0 l/m 2 min 0 min 1,6 UV-I 735 W/m 23,2 km/h (4 Bft)
14.04.2014 11:14 12,2 C 12,2 C 64 % 1017,6 hPa 0,0 l/m 2 min 0 min 1,8 UV-I 677 W/m 23,2 km/h (4 Bft)
14.04.2014 11:16 12,2 C 12,8 C 65 % 1017,5 hPa 0,0 l/m 2 min 0 min 1,5 UV-I 842 W/m 30,9 km/h (5 Bft)
14.04.2014 11:18 12,3 C 12,8 C 64 % 1017,6 hPa 0,0 l/m 0 min 0 min 0,7 UV-I 316 W/m 28,3 km/h (4 Bft)
14.04.2014 11:20 12,3 C 12,2 C 64 % 1017,5 hPa 0,0 l/m 0 min 0 min 0,0 UV-I 316 W/m 18,0 km/h (3 Bft)
14.04.2014 11:22 12,1 C 11,7 C 65 % 1017,6 hPa 0,0 l/m 0 min 0 min 0,0 UV-I 144 W/m 28,3 km/h (4 Bft)
14.04.2014 11:24 11,8 C 11,1 C 65 % 1017,7 hPa 0,0 l/m 0 min 0 min 0,8 UV-I 141 W/m 20,6 km/h (4 Bft)
14.04.2014 11:26 11,6 C 11,1 C 66 % 1017,7 hPa 0,0 l/m 0 min 0 min 1,3 UV-I 141 W/m 23,2 km/h (4 Bft)
14.04.2014 11:28 11,7 C 11,7 C 66 % 1017,7 hPa 0,0 l/m 0 min 0 min 0,8 UV-I 141 W/m 12,9 km/h (3 Bft)
14.04.2014 11:30 11,9 C 11,7 C 67 % 1017,6 hPa 0,0 l/m 2 min 0 min 1,9 UV-I 647 W/m 20,6 km/h (4 Bft)
14.04.2014 11:32 11,9 C 11,7 C 65 % 1017,7 hPa 0,0 l/m 2 min 0 min 1,9 UV-I 659 W/m 18,0 km/h (3 Bft)
14.04.2014 11:34 12,1 C 12,2 C 66 % 1017,6 hPa 0,0 l/m 2 min 0 min 0,8 UV-I 598 W/m 38,6 km/h (5 Bft)
14.04.2014 11:36 12,1 C 12,2 C 65 % 1017,7 hPa 0,0 l/m 2 min 0 min 0,9 UV-I 721 W/m 15,4 km/h (3 Bft)
14.04.2014 11:38 12,2 C 12,2 C 66 % 1017,6 hPa 0,0 l/m 2 min 0 min 2,0 UV-I 661 W/m 25,7 km/h (4 Bft)
14.04.2014 11:40 12,3 C 12,2 C 66 % 1017,7 hPa 0,0 l/m 2 min 0 min 2,1 UV-I 684 W/m 15,4 km/h (3 Bft)
14.04.2014 11:42 12,4 C 12,8 C 65 % 1017,7 hPa 0,0 l/m 2 min 0 min 1,0 UV-I 701 W/m 12,9 km/h (3 Bft)
14.04.2014 11:44 12,5 C 12,8 C 64 % 1017,6 hPa 0,0 l/m 2 min 0 min 2,2 UV-I 701 W/m 20,6 km/h (4 Bft)
14.04.2014 11:46 12,6 C 12,8 C 64 % 1017,6 hPa 0,0 l/m 2 min 0 min 2,1 UV-I 784 W/m 36,0 km/h (5 Bft)
14.04.2014 11:48 12,7 C 12,8 C 64 % 1017,6 hPa 0,0 l/m 2 min 0 min 2,2 UV-I 763 W/m 23,2 km/h (4 Bft)
14.04.2014 11:50 12,8 C 13,3 C 64 % 1017,5 hPa 0,0 l/m 2 min 0 min 2,2 UV-I 840 W/m 30,9 km/h (5 Bft)
14.04.2014 11:52 12,8 C 13,3 C 63 % 1017,7 hPa 0,0 l/m 2 min 0 min 0,7 UV-I 844 W/m 23,2 km/h (4 Bft)
14.04.2014 11:54 12,7 C 12,8 C 62 % 1017,6 hPa 0,0 l/m 0 min 0 min 0,6 UV-I 202 W/m 28,3 km/h (4 Bft)
14.04.2014 11:56 12,5 C 12,2 C 63 % 1017,6 hPa 0,0 l/m 0 min 0 min 0,7 UV-I 267 W/m 36,0 km/h (5 Bft)
14.04.2014 11:58 12,3 C 12,2 C 63 % 1017,5 hPa 0,0 l/m 0 min 0 min 0,5 UV-I 269 W/m 28,3 km/h (4 Bft)
14.04.2014 12:00 12,2 C 12,2 C 64 % 1017,6 hPa 0,0 l/m 0 min 0 min 0,6 UV-I 107 W/m 20,6 km/h (4 Bft)
14.04.2014 12:02 12,0 C 11,7 C 62 % 1017,7 hPa 0,0 l/m 0 min 0 min 2,3 UV-I 104 W/m 15,4 km/h (3 Bft)
14.04.2014 12:06 12,3 C 12,8 C 61 % 1017,6 hPa 0,0 l/m 2 min 0 min 2,3 UV-I 700 W/m 23,2 km/h (4 Bft)
14.04.2014 12:08 12,6 C 12,8 C 61 % 1017,6 hPa 0,0 l/m 2 min 0 min 2,4 UV-I 708 W/m 23,2 km/h (4 Bft)
14.04.2014 12:10 12,8 C 13,3 C 62 % 1017,7 hPa 0,0 l/m 2 min 0 min 2,4 UV-I 733 W/m 12,9 km/h (3 Bft)
14.04.2014 12:12 12,9 C 13,3 C 62 % 1017,7 hPa 0,0 l/m 2 min 0 min 2,4 UV-I 712 W/m 10,3 km/h (2 Bft)
14.04.2014 12:14 13,1 C 13,9 C 61 % 1017,7 hPa 0,0 l/m 2 min 0 min 2,5 UV-I 770 W/m 28,3 km/h (4 Bft)
14.04.2014 12:16 13,4 C 14,4 C 62 % 1017,5 hPa 0,0 l/m 2 min 0 min 2,6 UV-I 854 W/m 23,2 km/h (4 Bft)
14.04.2014 12:18 13,5 C 13,9 C 60 % 1017,5 hPa 0,0 l/m 2 min 0 min 2,4 UV-I 854 W/m 15,4 km/h (3 Bft)
14.04.2014 12:20 13,6 C 14,4 C 62 % 1017,5 hPa 0,0 l/m 2 min 0 min 2,6 UV-I 951 W/m 23,2 km/h (4 Bft)
14.04.2014 12:22 13,8 C 15,0 C 60 % 1017,5 hPa 0,0 l/m 2 min 0 min 0,5 UV-I 946 W/m 25,7 km/h (4 Bft)
14.04.2014 12:24 13,6 C 13,9 C 60 % 1017,6 hPa 0,0 l/m 0 min 0 min 0,0 UV-I 125 W/m 20,6 km/h (4 Bft)
14.04.2014 12:26 13,2 C 12,8 C 60 % 1017,7 hPa 0,0 l/m 0 min 0 min 0,0 UV-I 130 W/m 23,2 km/h (4 Bft)
14.04.2014 12:28 12,7 C 11,7 C 62 % 1017,8 hPa 0,0 l/m 0 min 2 min 0,0 UV-I 125 W/m 12,9 km/h (3 Bft)
14.04.2014 12:30 12,2 C 10,0 C 68 % 1017,7 hPa 0,0 l/m 0 min 2 min 0,0 UV-I 118 W/m 7,7 km/h (2 Bft)
14.04.2014 12:32 11,6 C 9,4 C 72 % 1017,7 hPa 0,0 l/m 0 min 2 min 0,5 UV-I 197 W/m 12,9 km/h (3 Bft)
14.04.2014 12:34 11,2 C 9,4 C 72 % 1017,8 hPa 0,0 l/m 0 min 2 min 0,8 UV-I 359 W/m 12,9 km/h (3 Bft)
14.04.2014 12:36 11,1 C 9,4 C 73 % 1017,8 hPa 0,0 l/m 0 min 0 min 2,3 UV-I 359 W/m 15,4 km/h (3 Bft)
14.04.2014 12:38 11,3 C 9,4 C 75 % 1017,7 hPa 0,0 l/m 2 min 0 min 2,5 UV-I 717 W/m 15,4 km/h (3 Bft)
14.04.2014 12:40 11,7 C 10,6 C 74 % 1017,6 hPa 0,0 l/m 2 min 0 min 2,6 UV-I 740 W/m 20,6 km/h (4 Bft)
14.04.2014 12:42 12,1 C 10,6 C 71 % 1017,7 hPa 0,0 l/m 2 min 0 min 2,6 UV-I 749 W/m 15,4 km/h (3 Bft)
14.04.2014 12:44 12,4 C 11,1 C 67 % 1017,7 hPa 0,0 l/m 2 min 0 min 2,6 UV-I 744 W/m 18,0 km/h (3 Bft)
14.04.2014 12:46 12,6 C 11,7 C 65 % 1017,7 hPa 0,0 l/m 2 min 0 min 2,5 UV-I 759 W/m 12,9 km/h (3 Bft)
14.04.2014 12:48 12,9 C 12,2 C 65 % 1017,6 hPa 0,0 l/m 2 min 0 min 2,4 UV-I 814 W/m 33,5 km/h (5 Bft)
14.04.2014 12:50 13,3 C 13,3 C 65 % 1017,6 hPa 0,0 l/m 2 min 0 min 2,1 UV-I 900 W/m 15,4 km/h (3 Bft)
14.04.2014 12:52 13,3 C 13,3 C 63 % 1017,7 hPa 0,0 l/m 0 min 0 min 1,9 UV-I 338 W/m 20,6 km/h (4 Bft)
14.04.2014 12:54 13,2 C 13,9 C 62 % 1017,7 hPa 0,0 l/m 0 min 0 min 1,4 UV-I 338 W/m 18,0 km/h (3 Bft)
14.04.2014 12:56 13,2 C 13,9 C 62 % 1017,7 hPa 0,0 l/m 2 min 0 min 1,4 UV-I 831 W/m 15,4 km/h (3 Bft)
14.04.2014 12:58 13,1 C 13,9 C 62 % 1017,8 hPa 0,0 l/m 0 min 0 min 1,2 UV-I 352 W/m 20,6 km/h (4 Bft)
14.04.2014 13:00 13,0 C 13,9 C 62 % 1017,7 hPa 0,0 l/m 0 min 0 min 1,1 UV-I 352 W/m 28,3 km/h (4 Bft)
14.04.2014 13:02 13,1 C 14,4 C 62 % 1017,7 hPa 0,0 l/m 2 min 0 min 1,0 UV-I 912 W/m 30,9 km/h (5 Bft)
14.04.2014 13:06 13,7 C 15,0 C 62 % 1017,7 hPa 0,0 l/m 2 min 0 min 1,2 UV-I 861 W/m 20,6 km/h (4 Bft)
14.04.2014 13:08 13,9 C 15,6 C 61 % 1017,6 hPa 0,0 l/m 2 min 0 min 1,3 UV-I 911 W/m 12,9 km/h (3 Bft)
14.04.2014 13:10 14,0 C 15,0 C 59 % 1017,7 hPa 0,0 l/m 2 min 0 min 1,3 UV-I 911 W/m 30,9 km/h (5 Bft)
14.04.2014 13:12 14,1 C 15,0 C 59 % 1017,6 hPa 0,0 l/m 2 min 0 min 1,3 UV-I 911 W/m 30,9 km/h (5 Bft)
14.04.2014 13:14 13,9 C 15,0 C 58 % 1017,7 hPa 0,0 l/m 2 min 0 min 1,2 UV-I 911 W/m 20,6 km/h (4 Bft)
14.04.2014 13:16 14,2 C 15,0 C 59 % 1017,7 hPa 0,0 l/m 2 min 0 min 0,7 UV-I 979 W/m 18,0 km/h (3 Bft)
14.04.2014 13:18 14,0 C 14,4 C 58 % 1017,8 hPa 0,0 l/m 2 min 2 min 0,0 UV-I 979 W/m 23,2 km/h (4 Bft)
14.04.2014 13:20 13,4 C 13,3 C 60 % 1017,9 hPa 0,0 l/m 0 min 2 min 0,0 UV-I 109 W/m 15,4 km/h (3 Bft)
14.04.2014 13:22 12,9 C 10,6 C 66 % 1017,9 hPa 0,0 l/m 0 min 2 min 0,0 UV-I 90 W/m 23,2 km/h (4 Bft)
14.04.2014 13:24 12,2 C 8,9 C 68 % 1017,8 hPa 0,0 l/m 0 min 2 min 0,0 UV-I 79 W/m 25,7 km/h (4 Bft)
14.04.2014 13:26 11,6 C 7,8 C 69 % 1017,9 hPa 0,0 l/m 0 min 2 min 0,0 UV-I 104 W/m 33,5 km/h (5 Bft)
14.04.2014 13:28 10,9 C 7,8 C 71 % 1017,8 hPa 0,0 l/m 0 min 2 min 0,7 UV-I 142 W/m 20,6 km/h (4 Bft)
14.04.2014 13:30 10,4 C 7,8 C 73 % 1017,8 hPa 0,2 l/m 0 min 0 min 0,8 UV-I 142 W/m 18,0 km/h (3 Bft)
14.04.2014 13:32 10,2 C 7,8 C 75 % 1017,9 hPa 0,0 l/m 0 min 0 min 0,0 UV-I 155 W/m 15,4 km/h (3 Bft)
14.04.2014 13:34 10,2 C 7,8 C 76 % 1017,9 hPa 0,0 l/m 0 min 0 min 0,0 UV-I 90 W/m 30,9 km/h (5 Bft)
14.04.2014 13:36 10,2 C 7,8 C 75 % 1017,8 hPa 0,0 l/m 0 min 2 min 0,0 UV-I 77 W/m 18,0 km/h (3 Bft)
14.04.2014 13:38 10,3 C 7,8 C 75 % 1017,9 hPa 0,0 l/m 0 min 2 min 0,0 UV-I 86 W/m 10,3 km/h (2 Bft)
14.04.2014 13:40 10,3 C 7,8 C 72 % 1017,8 hPa 0,0 l/m 0 min 0 min 0,6 UV-I 83 W/m 10,3 km/h (2 Bft)
14.04.2014 13:42 10,4 C 7,8 C 70 % 1017,8 hPa 0,0 l/m 2 min 0 min 1,8 UV-I 789 W/m 15,4 km/h (3 Bft)
14.04.2014 13:44 10,8 C 8,9 C 71 % 1017,8 hPa 0,0 l/m 2 min 0 min 2,4 UV-I 861 W/m 18,0 km/h (3 Bft)
14.04.2014 13:46 11,6 C 10,0 C 70 % 1017,8 hPa 0,0 l/m 2 min 0 min 1,5 UV-I 1011 W/m 33,5 km/h (5 Bft)
14.04.2014 13:48 12,0 C 10,6 C 69 % 1017,8 hPa 0,0 l/m 2 min 0 min 0,9 UV-I 962 W/m 23,2 km/h (4 Bft)
14.04.2014 13:50 12,2 C 10,6 C 69 % 1017,8 hPa 0,0 l/m 0 min 2 min 0,0 UV-I 195 W/m 28,3 km/h (4 Bft)
14.04.2014 13:52 12,1 C 8,9 C 69 % 1018,0 hPa 0,0 l/m 0 min 2 min 0,0 UV-I 144 W/m 30,9 km/h (5 Bft)
14.04.2014 13:54 11,4 C 8,3 C 71 % 1017,9 hPa 0,0 l/m 0 min 2 min 0,0 UV-I 107 W/m 33,5 km/h (5 Bft)
14.04.2014 13:56 10,8 C 7,8 C 72 % 1017,9 hPa 0,2 l/m 0 min 2 min 0,0 UV-I 128 W/m 36,0 km/h (5 Bft)
14.04.2014 13:58 10,2 C 7,2 C 76 % 1017,9 hPa 0,0 l/m 0 min 2 min 0,0 UV-I 135 W/m 20,6 km/h (4 Bft)
14.04.2014 14:00 9,8 C 7,2 C 79 % 1017,9 hPa 0,0 l/m 0 min 2 min 0,6 UV-I 142 W/m 12,9 km/h (3 Bft)
14.04.2014 14:02 9,7 C 7,8 C 80 % 1017,9 hPa 0,0 l/m 0 min 0 min 0,8 UV-I 142 W/m 10,3 km/h (2 Bft)
14.04.2014 14:06 9,9 C 8,3 C 83 % 1017,8 hPa 0,0 l/m 2 min 0 min 2,5 UV-I 700 W/m 12,9 km/h (3 Bft)
14.04.2014 14:08 10,4 C 8,9 C 84 % 1017,9 hPa 0,0 l/m 2 min 0 min 2,5 UV-I 703 W/m 12,9 km/h (3 Bft)
14.04.2014 14:10 10,8 C 8,9 C 82 % 1017,9 hPa 0,0 l/m 2 min 0 min 2,6 UV-I 703 W/m 20,6 km/h (4 Bft)
14.04.2014 14:12 11,3 C 9,4 C 80 % 1017,9 hPa 0,0 l/m 2 min 0 min 2,6 UV-I 763 W/m 15,4 km/h (3 Bft)
14.04.2014 14:14 11,6 C 9,4 C 78 % 1017,9 hPa 0,0 l/m 2 min 0 min 1,5 UV-I 512 W/m 20,6 km/h (4 Bft)
14.04.2014 14:16 11,8 C 10,0 C 76 % 1017,9 hPa 0,0 l/m 2 min 0 min 1,3 UV-I 512 W/m 18,0 km/h (3 Bft)
14.04.2014 14:18 12,0 C 9,4 C 73 % 1017,9 hPa 0,0 l/m 0 min 0 min 0,5 UV-I 221 W/m 25,7 km/h (4 Bft)
14.04.2014 14:20 11,9 C 9,4 C 74 % 1018,2 hPa 0,0 l/m 0 min 2 min 0,0 UV-I 130 W/m 20,6 km/h (4 Bft)
14.04.2014 14:22 11,4 C 8,3 C 73 % 1018,2 hPa 0,0 l/m 0 min 2 min 0,0 UV-I 204 W/m 36,0 km/h (5 Bft)
14.04.2014 14:24 10,8 C 7,8 C 75 % 1018,1 hPa 0,0 l/m 0 min 2 min 0,0 UV-I 188 W/m 20,6 km/h (4 Bft)
14.04.2014 14:26 10,3 C 7,8 C 75 % 1018,0 hPa 0,0 l/m 0 min 2 min 2,3 UV-I 200 W/m 28,3 km/h (4 Bft)
14.04.2014 14:28 10,4 C 8,3 C 79 % 1017,9 hPa 0,0 l/m 0 min 2 min 2,5 UV-I 200 W/m 15,4 km/h (3 Bft)
14.04.2014 14:30 10,7 C 8,9 C 78 % 1017,9 hPa 0,0 l/m 2 min 2 min 2,4 UV-I 698 W/m 25,7 km/h (4 Bft)
14.04.2014 14:32 10,8 C 8,9 C 77 % 1017,9 hPa 0,0 l/m 2 min 2 min 2,4 UV-I 701 W/m 18,0 km/h (3 Bft)
14.04.2014 14:34 11,1 C 9,4 C 77 % 1017,9 hPa 0,0 l/m 2 min 0 min 2,4 UV-I 700 W/m 28,3 km/h (4 Bft)
14.04.2014 14:36 11,3 C 9,4 C 75 % 1017,9 hPa 0,0 l/m 2 min 2 min 2,4 UV-I 701 W/m 18,0 km/h (3 Bft)
14.04.2014 14:38 11,6 C 10,0 C 76 % 1017,9 hPa 0,0 l/m 2 min 0 min 2,4 UV-I 700 W/m 23,2 km/h (4 Bft)
14.04.2014 14:40 12,0 C 10,6 C 73 % 1018,0 hPa 0,0 l/m 2 min 0 min 2,4 UV-I 701 W/m 30,9 km/h (5 Bft)
14.04.2014 14:42 12,1 C 10,6 C 71 % 1018,0 hPa 0,0 l/m 2 min 2 min 2,6 UV-I 747 W/m 28,3 km/h (4 Bft)
14.04.2014 14:44 12,3 C 10,6 C 70 % 1017,9 hPa 0,0 l/m 2 min 0 min 2,4 UV-I 747 W/m 25,7 km/h (4 Bft)
14.04.2014 14:46 12,3 C 10,6 C 68 % 1017,9 hPa 0,0 l/m 0 min 0 min 0,6 UV-I 120 W/m 28,3 km/h (4 Bft)
14.04.2014 14:48 12,1 C 10,6 C 68 % 1017,9 hPa 0,0 l/m 0 min 0 min 0,5 UV-I 127 W/m 20,6 km/h (4 Bft)
14.04.2014 14:50 11,9 C 10,6 C 66 % 1018,0 hPa 0,0 l/m 0 min 2 min 0,0 UV-I 142 W/m 23,2 km/h (4 Bft)
14.04.2014 14:52 11,7 C 10,6 C 68 % 1018,0 hPa 0,0 l/m 0 min 0 min 0,0 UV-I 151 W/m 12,9 km/h (3 Bft)
14.04.2014 14:54 11,6 C 10,6 C 67 % 1018,0 hPa 0,0 l/m 0 min 0 min 0,0 UV-I 144 W/m 25,7 km/h (4 Bft)
14.04.2014 14:56 11,5 C 10,6 C 66 % 1018,4 hPa 0,0 l/m 0 min 0 min 0,0 UV-I 114 W/m 36,0 km/h (5 Bft)
14.04.2014 14:58 11,3 C 10,0 C 67 % 1018,2 hPa 0,0 l/m 0 min 2 min 0,0 UV-I 114 W/m 25,7 km/h (4 Bft)
14.04.2014 15:00 10,9 C 10,0 C 68 % 1018,3 hPa 0,0 l/m 0 min 2 min 0,0 UV-I 128 W/m 28,3 km/h (4 Bft)
14.04.2014 15:02 10,7 C 9,4 C 69 % 1018,4 hPa 0,0 l/m 0 min 2 min 0,0 UV-I 162 W/m 33,5 km/h (5 Bft)
14.04.2014 15:06 10,3 C 9,4 C 71 % 1018,3 hPa 0,0 l/m 0 min 2 min 0,0 UV-I 160 W/m 41,2 km/h (6 Bft)
14.04.2014 15:08 10,2 C 9,4 C 71 % 1018,3 hPa 0,0 l/m 0 min 2 min 0,0 UV-I 195 W/m 18,0 km/h (3 Bft)
14.04.2014 15:10 10,2 C 9,4 C 72 % 1018,4 hPa 0,0 l/m 0 min 2 min 0,6 UV-I 287 W/m 12,9 km/h (3 Bft)
14.04.2014 15:12 10,2 C 9,4 C 73 % 1018,3 hPa 0,0 l/m 0 min 2 min 0,5 UV-I 153 W/m 12,9 km/h (3 Bft)
14.04.2014 15:14 10,2 C 9,4 C 73 % 1018,2 hPa 0,0 l/m 0 min 0 min 0,7 UV-I 144 W/m 18,0 km/h (3 Bft)
14.04.2014 15:16 10,3 C 9,4 C 74 % 1018,1 hPa 0,0 l/m 2 min 0 min 2,1 UV-I 701 W/m 10,3 km/h (2 Bft)
14.04.2014 15:18 10,6 C 10,0 C 73 % 1018,1 hPa 0,0 l/m 2 min 0 min 2,2 UV-I 700 W/m 18,0 km/h (3 Bft)
14.04.2014 15:20 11,1 C 10,6 C 73 % 1018,1 hPa 0,0 l/m 2 min 0 min 2,1 UV-I 735 W/m 15,4 km/h (3 Bft)
14.04.2014 15:22 11,3 C 10,6 C 70 % 1018,1 hPa 0,0 l/m 0 min 0 min 0,6 UV-I 146 W/m 25,7 km/h (4 Bft)
14.04.2014 15:24 11,4 C 10,6 C 69 % 1018,1 hPa 0,0 l/m 0 min 0 min 1,7 UV-I 160 W/m 15,4 km/h (3 Bft)
14.04.2014 15:26 11,3 C 10,6 C 69 % 1018,0 hPa 0,0 l/m 0 min 0 min 0,8 UV-I 176 W/m 20,6 km/h (4 Bft)
14.04.2014 15:28 11,4 C 10,6 C 70 % 1018,1 hPa 0,0 l/m 0 min 0 min 0,8 UV-I 176 W/m 12,9 km/h (3 Bft)
14.04.2014 15:30 11,6 C 11,1 C 69 % 1018,2 hPa 0,0 l/m 2 min 0 min 2,0 UV-I 700 W/m 15,4 km/h (3 Bft)
14.04.2014 15:32 11,8 C 11,1 C 68 % 1018,1 hPa 0,0 l/m 2 min 0 min 0,9 UV-I 700 W/m 18,0 km/h (3 Bft)
14.04.2014 15:34 11,8 C 11,1 C 67 % 1018,1 hPa 0,0 l/m 0 min 0 min 0,7 UV-I 239 W/m 25,7 km/h (4 Bft)
14.04.2014 15:36 11,7 C 11,1 C 67 % 1018,1 hPa 0,0 l/m 0 min 0 min 0,6 UV-I 223 W/m 30,9 km/h (5 Bft)
14.04.2014 15:38 11,7 C 11,1 C 67 % 1018,2 hPa 0,0 l/m 0 min 0 min 0,7 UV-I 200 W/m 25,7 km/h (4 Bft)
14.04.2014 15:40 11,6 C 10,6 C 67 % 1018,2 hPa 0,0 l/m 0 min 0 min 0,5 UV-I 118 W/m 25,7 km/h (4 Bft)
14.04.2014 15:42 11,5 C 10,6 C 66 % 1018,2 hPa 0,0 l/m 0 min 0 min 0,9 UV-I 162 W/m 23,2 km/h (4 Bft)
14.04.2014 15:44 11,4 C 10,6 C 65 % 1018,2 hPa 0,0 l/m 0 min 0 min 0,7 UV-I 162 W/m 25,7 km/h (4 Bft)
14.04.2014 15:46 11,4 C 10,6 C 64 % 1018,2 hPa 0,0 l/m 0 min 0 min 0,5 UV-I 176 W/m 25,7 km/h (4 Bft)
14.04.2014 15:48 11,5 C 10,6 C 62 % 1018,3 hPa 0,0 l/m 0 min 0 min 0,0 UV-I 176 W/m 30,9 km/h (5 Bft)
14.04.2014 15:50 11,6 C 11,1 C 60 % 1018,3 hPa 0,0 l/m 0 min 0 min 0,0 UV-I 246 W/m 41,2 km/h (6 Bft)
14.04.2014 15:52 11,9 C 11,7 C 62 % 1018,2 hPa 0,0 l/m 2 min 0 min 1,7 UV-I 766 W/m 15,4 km/h (3 Bft)
14.04.2014 15:54 12,4 C 12,2 C 62 % 1018,2 hPa 0,0 l/m 2 min 0 min 0,6 UV-I 744 W/m 25,7 km/h (4 Bft)
14.04.2014 15:56 12,4 C 11,7 C 59 % 1018,5 hPa 0,0 l/m 0 min 0 min 0,7 UV-I 144 W/m 30,9 km/h (5 Bft)
14.04.2014 15:58 12,4 C 11,7 C 60 % 1018,6 hPa 0,0 l/m 0 min 0 min 1,7 UV-I 135 W/m 28,3 km/h (4 Bft)
14.04.2014 16:00 12,3 C 11,7 C 58 % 1018,5 hPa 0,0 l/m 2 min 0 min 1,6 UV-I 642 W/m 30,9 km/h (5 Bft)
14.04.2014 16:02 12,5 C 11,7 C 57 % 1018,5 hPa 0,0 l/m 2 min 0 min 1,6 UV-I 638 W/m 30,9 km/h (5 Bft)
14.04.2014 16:06 12,9 C 12,8 C 57 % 1018,3 hPa 0,0 l/m 2 min 0 min 1,4 UV-I 763 W/m 33,5 km/h (5 Bft)
14.04.2014 16:08 13,2 C 12,8 C 58 % 1018,3 hPa 0,0 l/m 2 min 0 min 1,3 UV-I 763 W/m 20,6 km/h (4 Bft)
14.04.2014 16:10 13,4 C 13,3 C 56 % 1018,4 hPa 0,0 l/m 2 min 0 min 0,0 UV-I 738 W/m 25,7 km/h (4 Bft)
14.04.2014 16:12 13,4 C 12,8 C 56 % 1018,4 hPa 0,0 l/m 0 min 0 min 0,0 UV-I 243 W/m 25,7 km/h (4 Bft)
14.04.2014 16:14 13,1 C 12,8 C 55 % 1018,3 hPa 0,0 l/m 0 min 0 min 0,0 UV-I 246 W/m 30,9 km/h (5 Bft)
14.04.2014 16:16 12,7 C 12,2 C 54 % 1018,5 hPa 0,0 l/m 0 min 0 min 1,1 UV-I 244 W/m 48,9 km/h (6 Bft)
14.04.2014 16:18 12,4 C 11,7 C 56 % 1018,4 hPa 0,0 l/m 0 min 0 min 0,0 UV-I 214 W/m 38,6 km/h (5 Bft)
14.04.2014 16:20 12,2 C 11,7 C 59 % 1018,6 hPa 0,0 l/m 0 min 0 min 0,0 UV-I 181 W/m 25,7 km/h (4 Bft)
14.04.2014 16:22 11,9 C 11,1 C 61 % 1018,7 hPa 0,0 l/m 0 min 0 min 0,0 UV-I 195 W/m 33,5 km/h (5 Bft)
14.04.2014 16:24 11,6 C 11,1 C 63 % 1018,7 hPa 0,0 l/m 0 min 0 min 0,0 UV-I 202 W/m 28,3 km/h (4 Bft)
14.04.2014 16:26 11,4 C 10,6 C 63 % 1018,8 hPa 0,0 l/m 0 min 0 min 0,0 UV-I 141 W/m 20,6 km/h (4 Bft)
14.04.2014 16:28 11,2 C 10,6 C 64 % 1018,7 hPa 0,0 l/m 0 min 0 min 0,0 UV-I 120 W/m 38,6 km/h (5 Bft)
14.04.2014 16:30 11,0 C 10,0 C 65 % 1018,7 hPa 0,0 l/m 0 min 0 min 1,1 UV-I 113 W/m 28,3 km/h (4 Bft)
14.04.2014 16:32 11,0 C 10,6 C 65 % 1018,8 hPa 0,0 l/m 2 min 0 min 1,2 UV-I 543 W/m 38,6 km/h (5 Bft)
14.04.2014 16:34 11,2 C 10,6 C 66 % 1018,7 hPa 0,0 l/m 2 min 0 min 1,2 UV-I 552 W/m 18,0 km/h (3 Bft)
14.04.2014 16:36 11,4 C 11,1 C 65 % 1018,8 hPa 0,0 l/m 2 min 0 min 1,2 UV-I 543 W/m 23,2 km/h (4 Bft)
14.04.2014 16:38 11,8 C 11,7 C 66 % 1018,8 hPa 0,0 l/m 2 min 0 min 1,1 UV-I 540 W/m 15,4 km/h (3 Bft)
14.04.2014 16:40 12,1 C 11,7 C 64 % 1018,8 hPa 0,0 l/m 2 min 0 min 0,0 UV-I 564 W/m 23,2 km/h (4 Bft)
14.04.2014 16:42 12,2 C 11,7 C 63 % 1018,8 hPa 0,0 l/m 0 min 0 min 0,0 UV-I 169 W/m 20,6 km/h (4 Bft)
14.04.2014 16:44 11,9 C 11,1 C 62 % 1018,9 hPa 0,0 l/m 0 min 0 min 0,0 UV-I 137 W/m 28,3 km/h (4 Bft)
14.04.2014 16:46 11,8 C 10,6 C 61 % 1018,9 hPa 0,0 l/m 0 min 0 min 0,0 UV-I 144 W/m 46,3 km/h (6 Bft)
14.04.2014 16:48 11,6 C 10,6 C 61 % 1018,9 hPa 0,0 l/m 0 min 0 min 0,0 UV-I 160 W/m 33,5 km/h (5 Bft)
14.04.2014 16:50 11,4 C 10,6 C 62 % 1018,9 hPa 0,0 l/m 0 min 0 min 0,0 UV-I 221 W/m 33,5 km/h (5 Bft)
14.04.2014 16:52 11,3 C 10,6 C 63 % 1019,0 hPa 0,0 l/m 0 min 0 min 0,0 UV-I 230 W/m 33,5 km/h (5 Bft)
14.04.2014 16:54 11,3 C 11,1 C 63 % 1018,9 hPa 0,0 l/m 0 min 0 min 0,0 UV-I 230 W/m 18,0 km/h (3 Bft)
14.04.2014 16:56 11,4 C 11,7 C 64 % 1018,9 hPa 0,0 l/m 2 min 0 min 0,0 UV-I 385 W/m 15,4 km/h (3 Bft)
14.04.2014 16:58 11,7 C 11,7 C 64 % 1018,9 hPa 0,0 l/m 0 min 0 min 0,8 UV-I 236 W/m 28,3 km/h (4 Bft)
14.04.2014 17:00 11,8 C 11,7 C 63 % 1018,8 hPa 0,0 l/m 0 min 0 min 0,9 UV-I 209 W/m 18,0 km/h (3 Bft)
14.04.2014 17:02 11,9 C 11,7 C 61 % 1018,9 hPa 0,0 l/m 2 min 0 min 0,9 UV-I 612 W/m 30,9 km/h (5 Bft)
14.04.2014 17:06 12,4 C 12,8 C 60 % 1018,8 hPa 0,0 l/m 2 min 0 min 0,6 UV-I 603 W/m 30,9 km/h (5 Bft)
14.04.2014 17:08 12,7 C 13,3 C 61 % 1018,8 hPa 0,0 l/m 2 min 0 min 0,5 UV-I 608 W/m 18,0 km/h (3 Bft)
14.04.2014 17:10 12,7 C 12,8 C 58 % 1018,8 hPa 0,0 l/m 2 min 2 min 0,0 UV-I 568 W/m 25,7 km/h (4 Bft)
14.04.2014 17:12 12,8 C 12,8 C 59 % 1018,8 hPa 0,0 l/m 2 min 0 min 0,0 UV-I 538 W/m 18,0 km/h (3 Bft)
14.04.2014 17:14 12,7 C 12,2 C 59 % 1018,7 hPa 0,0 l/m 0 min 0 min 0,0 UV-I 114 W/m 15,4 km/h (3 Bft)
14.04.2014 17:16 12,3 C 11,7 C 59 % 1019,0 hPa 0,0 l/m 0 min 0 min 0,0 UV-I 93 W/m 20,6 km/h (4 Bft)
14.04.2014 17:18 12,1 C 11,1 C 60 % 1018,9 hPa 0,0 l/m 0 min 2 min 0,0 UV-I 109 W/m 23,2 km/h (4 Bft)
14.04.2014 17:20 11,9 C 10,6 C 63 % 1019,0 hPa 0,0 l/m 0 min 2 min 0,0 UV-I 193 W/m 10,3 km/h (2 Bft)
14.04.2014 17:22 11,9 C 11,1 C 64 % 1019,1 hPa 0,0 l/m 0 min 2 min 0,0 UV-I 209 W/m 15,4 km/h (3 Bft)
14.04.2014 17:24 11,8 C 10,6 C 65 % 1018,9 hPa 0,0 l/m 0 min 0 min 0,0 UV-I 149 W/m 28,3 km/h (4 Bft)
14.04.2014 17:26 11,6 C 10,6 C 64 % 1019,1 hPa 0,0 l/m 0 min 0 min 0,0 UV-I 98 W/m 36,0 km/h (5 Bft)
14.04.2014 17:28 11,5 C 10,6 C 63 % 1019,0 hPa 0,0 l/m 0 min 2 min 0,0 UV-I 107 W/m 28,3 km/h (4 Bft)
14.04.2014 17:30 11,4 C 10,6 C 64 % 1019,1 hPa 0,0 l/m 0 min 0 min 0,0 UV-I 91 W/m 20,6 km/h (4 Bft)
14.04.2014 17:32 11,3 C 10,6 C 66 % 1019,2 hPa 0,0 l/m 0 min 0 min 0,0 UV-I 84 W/m 10,3 km/h (2 Bft)
14.04.2014 17:34 11,1 C 10,0 C 66 % 1019,1 hPa 0,0 l/m 0 min 0 min 0,0 UV-I 83 W/m 20,6 km/h (4 Bft)
14.04.2014 17:36 10,8 C 10,0 C 65 % 1019,1 hPa 0,0 l/m 0 min 0 min 0,0 UV-I 95 W/m 28,3 km/h (4 Bft)
14.04.2014 17:38 10,8 C 10,0 C 63 % 1019,1 hPa 0,0 l/m 2 min 0 min 0,0 UV-I 250 W/m 20,6 km/h (4 Bft)
14.04.2014 17:40 11,0 C 10,6 C 63 % 1019,3 hPa 0,0 l/m 2 min 0 min 0,0 UV-I 404 W/m 33,5 km/h (5 Bft)
14.04.2014 17:42 11,2 C 10,6 C 62 % 1019,2 hPa 0,0 l/m 2 min 0 min 0,0 UV-I 348 W/m 30,9 km/h (5 Bft)
14.04.2014 17:44 11,3 C 10,6 C 62 % 1019,3 hPa 0,0 l/m 2 min 0 min 0,0 UV-I 320 W/m 28,3 km/h (4 Bft)
14.04.2014 17:46 11,5 C 10,6 C 62 % 1019,3 hPa 0,0 l/m 2 min 0 min 0,0 UV-I 251 W/m 23,2 km/h (4 Bft)
14.04.2014 17:48 11,6 C 10,6 C 62 % 1019,3 hPa 0,0 l/m 2 min 0 min 0,0 UV-I 304 W/m 33,5 km/h (5 Bft)
14.04.2014 17:50 11,7 C 10,6 C 62 % 1019,3 hPa 0,0 l/m 0 min 0 min 0,0 UV-I 200 W/m 28,3 km/h (4 Bft)
14.04.2014 17:52 11,7 C 10,6 C 61 % 1019,3 hPa 0,0 l/m 0 min 0 min 0,0 UV-I 200 W/m 10,3 km/h (2 Bft)
14.04.2014 17:54 11,7 C 11,1 C 61 % 1019,2 hPa 0,0 l/m 2 min 0 min 0,0 UV-I 279 W/m 28,3 km/h (4 Bft)
14.04.2014 17:56 11,8 C 11,1 C 61 % 1019,3 hPa 0,0 l/m 0 min 0 min 0,0 UV-I 165 W/m 18,0 km/h (3 Bft)
14.04.2014 17:58 11,8 C 11,1 C 59 % 1019,4 hPa 0,0 l/m 2 min 0 min 0,0 UV-I 271 W/m 23,2 km/h (4 Bft)
14.04.2014 18:00 11,7 C 11,1 C 59 % 1019,3 hPa 0,0 l/m 2 min 0 min 0,0 UV-I 378 W/m 25,7 km/h (4 Bft)
14.04.2014 18:02 11,8 C 11,1 C 60 % 1019,4 hPa 0,0 l/m 2 min 0 min 0,0 UV-I 262 W/m 15,4 km/h (3 Bft)
14.04.2014 18:06 11,5 C 10,6 C 59 % 1019,4 hPa 0,0 l/m 0 min 0 min 0,0 UV-I 53 W/m 25,7 km/h (4 Bft)
14.04.2014 18:08 11,3 C 10,0 C 59 % 1019,6 hPa 0,0 l/m 0 min 0 min 0,0 UV-I 35 W/m 28,3 km/h (4 Bft)
14.04.2014 18:10 11,1 C 10,0 C 61 % 1019,8 hPa 0,0 l/m 0 min 2 min 0,0 UV-I 30 W/m 36,0 km/h (5 Bft)
14.04.2014 18:12 10,8 C 8,9 C 66 % 1020,1 hPa 0,0 l/m 0 min 2 min 0,0 UV-I 63 W/m 20,6 km/h (4 Bft)
14.04.2014 18:14 10,2 C 7,2 C 70 % 1020,0 hPa 0,0 l/m 0 min 2 min 0,0 UV-I 146 W/m 33,5 km/h (5 Bft)
14.04.2014 18:16 9,5 C 6,7 C 74 % 1019,9 hPa 0,0 l/m 0 min 2 min 0,0 UV-I 171 W/m 23,2 km/h (4 Bft)
14.04.2014 18:18 8,9 C 6,7 C 76 % 1020,0 hPa 0,0 l/m 0 min 2 min 0,0 UV-I 156 W/m 38,6 km/h (5 Bft)
14.04.2014 18:20 8,7 C 6,7 C 78 % 1019,9 hPa 0,0 l/m 0 min 2 min 0,0 UV-I 155 W/m 20,6 km/h (4 Bft)
14.04.2014 18:22 8,6 C 6,7 C 80 % 1020,0 hPa 0,0 l/m 0 min 0 min 0,0 UV-I 105 W/m 23,2 km/h (4 Bft)
14.04.2014 18:24 8,6 C 6,7 C 81 % 1020,0 hPa 0,0 l/m 0 min 0 min 0,0 UV-I 149 W/m 30,9 km/h (5 Bft)
14.04.2014 18:26 8,7 C 7,2 C 81 % 1020,0 hPa 0,0 l/m 0 min 0 min 0,0 UV-I 130 W/m 10,3 km/h (2 Bft)
14.04.2014 18:28 8,9 C 7,2 C 81 % 1020,0 hPa 0,0 l/m 0 min 0 min 0,0 UV-I 95 W/m 20,6 km/h (4 Bft)
14.04.2014 18:30 8,9 C 7,2 C 80 % 1020,0 hPa 0,0 l/m 0 min 0 min 0,0 UV-I 111 W/m 7,7 km/h (2 Bft)
14.04.2014 18:32 9,0 C 7,2 C 80 % 1020,0 hPa 0,0 l/m 0 min 0 min 0,0 UV-I 114 W/m 20,6 km/h (4 Bft)
14.04.2014 18:34 8,9 C 7,2 C 78 % 1020,1 hPa 0,0 l/m 0 min 0 min 0,0 UV-I 90 W/m 38,6 km/h (5 Bft)
14.04.2014 18:36 9,0 C 7,2 C 78 % 1020,1 hPa 0,0 l/m 0 min 0 min 0,0 UV-I 58 W/m 28,3 km/h (4 Bft)
14.04.2014 18:38 8,9 C 7,2 C 78 % 1020,2 hPa 0,0 l/m 0 min 0 min 0,0 UV-I 62 W/m 30,9 km/h (5 Bft)
14.04.2014 18:40 8,7 C 7,2 C 77 % 1020,1 hPa 0,0 l/m 0 min 0 min 0,0 UV-I 81 W/m 25,7 km/h (4 Bft)
14.04.2014 18:42 8,5 C 6,7 C 77 % 1020,1 hPa 0,0 l/m 0 min 0 min 0,0 UV-I 56 W/m 20,6 km/h (4 Bft)
14.04.2014 18:44 8,3 C 6,7 C 78 % 1020,1 hPa 0,0 l/m 0 min 0 min 0,0 UV-I 49 W/m 18,0 km/h (3 Bft)
14.04.2014 18:46 8,2 C 6,7 C 78 % 1020,2 hPa 0,0 l/m 0 min 0 min 0,0 UV-I 42 W/m 23,2 km/h (4 Bft)
14.04.2014 18:48 8,4 C 7,2 C 78 % 1020,2 hPa 0,0 l/m 0 min 0 min 0,0 UV-I 56 W/m 10,3 km/h (2 Bft)
14.04.2014 18:50 8,5 C 7,2 C 79 % 1020,3 hPa 0,0 l/m 0 min 0 min 0,0 UV-I 39 W/m 10,3 km/h (2 Bft)
14.04.2014 18:52 8,7 C 7,2 C 78 % 1020,3 hPa 0,0 l/m 0 min 0 min 0,0 UV-I 37 W/m 20,6 km/h (4 Bft)
14.04.2014 18:54 8,7 C 7,8 C 78 % 1020,3 hPa 0,0 l/m 0 min 0 min 0,0 UV-I 46 W/m 20,6 km/h (4 Bft)
14.04.2014 18:56 8,8 C 7,8 C 78 % 1020,3 hPa 0,0 l/m 0 min 0 min 0,0 UV-I 42 W/m 15,4 km/h (3 Bft)
14.04.2014 18:58 8,9 C 7,8 C 78 % 1020,2 hPa 0,0 l/m 0 min 0 min 0,0 UV-I 37 W/m 10,3 km/h (2 Bft)
14.04.2014 19:00 8,9 C 7,8 C 77 % 1020,1 hPa 0,0 l/m 0 min 0 min 0,0 UV-I 40 W/m 20,6 km/h (4 Bft)
14.04.2014 19:02 9,1 C 7,8 C 77 % 1020,2 hPa 0,0 l/m 0 min 0 min 0,0 UV-I 53 W/m 12,9 km/h (3 Bft)
14.04.2014 19:06 9,1 C 7,8 C 76 % 1020,2 hPa 0,0 l/m 0 min 0 min 0,0 UV-I 72 W/m 18,0 km/h (3 Bft)
14.04.2014 19:08 9,1 C 7,8 C 76 % 1020,2 hPa 0,0 l/m 0 min 0 min 0,0 UV-I 58 W/m 12,9 km/h (3 Bft)
14.04.2014 19:10 9,1 C 7,8 C 76 % 1020,3 hPa 0,0 l/m 0 min 0 min 0,0 UV-I 47 W/m 18,0 km/h (3 Bft)
14.04.2014 19:12 9,1 C 7,8 C 76 % 1020,1 hPa 0,0 l/m 0 min 0 min 0,0 UV-I 44 W/m 10,3 km/h (2 Bft)
14.04.2014 19:14 9,0 C 7,8 C 76 % 1020,1 hPa 0,0 l/m 0 min 0 min 0,0 UV-I 35 W/m 15,4 km/h (3 Bft)
14.04.2014 19:16 8,9 C 7,8 C 76 % 1020,3 hPa 0,0 l/m 0 min 0 min 0,0 UV-I 25 W/m 25,7 km/h (4 Bft)
14.04.2014 19:18 8,9 C 7,8 C 76 % 1020,3 hPa 0,0 l/m 0 min 2 min 0,0 UV-I 21 W/m 20,6 km/h (4 Bft)
14.04.2014 19:20 8,9 C 7,2 C 77 % 1020,3 hPa 0,0 l/m 0 min 2 min 0,0 UV-I 19 W/m 5,1 km/h (1 Bft)
14.04.2014 19:22 8,8 C 6,7 C 78 % 1020,4 hPa 0,0 l/m 0 min 2 min 0,0 UV-I 23 W/m 2,6 km/h (1 Bft)
14.04.2014 19:24 8,7 C 6,7 C 79 % 1020,5 hPa 0,0 l/m 0 min 2 min 0,0 UV-I 46 W/m 15,4 km/h (3 Bft)
14.04.2014 19:26 8,6 C 6,1 C 80 % 1020,5 hPa 0,2 l/m 2 min 2 min 0,0 UV-I 95 W/m 10,3 km/h (2 Bft)
14.04.2014 19:28 8,2 C 6,1 C 81 % 1020,5 hPa 0,2 l/m 2 min 2 min 0,0 UV-I 149 W/m 23,2 km/h (4 Bft)
14.04.2014 19:30 8,0 C 6,1 C 82 % 1020,6 hPa 0,0 l/m 2 min 2 min 0,0 UV-I 142 W/m 23,2 km/h (4 Bft)
14.04.2014 19:32 7,9 C 5,6 C 83 % 1020,6 hPa 0,0 l/m 2 min 0 min 0,0 UV-I 98 W/m 20,6 km/h (4 Bft)
14.04.2014 19:34 7,8 C 5,6 C 83 % 1020,6 hPa 0,0 l/m 0 min 0 min 0,0 UV-I 47 W/m 23,2 km/h (4 Bft)
14.04.2014 19:36 7,8 C 5,6 C 84 % 1020,5 hPa 0,0 l/m 0 min 0 min 0,0 UV-I 40 W/m 15,4 km/h (3 Bft)
14.04.2014 19:38 7,7 C 5,6 C 84 % 1020,6 hPa 0,0 l/m 0 min 0 min 0,0 UV-I 35 W/m 15,4 km/h (3 Bft)
14.04.2014 19:40 7,7 C 5,6 C 85 % 1020,6 hPa 0,0 l/m 0 min 0 min 0,0 UV-I 39 W/m 10,3 km/h (2 Bft)
14.04.2014 19:42 7,7 C 5,6 C 86 % 1020,6 hPa 0,0 l/m 0 min 0 min 0,0 UV-I 39 W/m 15,4 km/h (3 Bft)
14.04.2014 19:44 7,7 C 5,6 C 86 % 1020,6 hPa 0,0 l/m 0 min 0 min 0,0 UV-I 40 W/m 15,4 km/h (3 Bft)
14.04.2014 19:46 7,7 C 5,6 C 85 % 1020,6 hPa 0,0 l/m 0 min 0 min 0,0 UV-I 47 W/m 15,4 km/h (3 Bft)
14.04.2014 19:48 7,7 C 5,6 C 85 % 1020,6 hPa 0,0 l/m 0 min 0 min 0,0 UV-I 49 W/m 7,7 km/h (2 Bft)
14.04.2014 19:50 7,7 C 5,6 C 84 % 1020,6 hPa 0,0 l/m 2 min 0 min 0,0 UV-I 53 W/m 28,3 km/h (4 Bft)
14.04.2014 19:52 7,6 C 5,6 C 84 % 1020,6 hPa 0,0 l/m 2 min 0 min 0,0 UV-I 67 W/m 12,9 km/h (3 Bft)
14.04.2014 19:54 7,6 C 5,6 C 84 % 1020,6 hPa 0,0 l/m 2 min 0 min 0,0 UV-I 56 W/m 23,2 km/h (4 Bft)
14.04.2014 19:56 7,6 C 5,6 C 83 % 1020,6 hPa 0,0 l/m 0 min 0 min 0,0 UV-I 37 W/m 20,6 km/h (4 Bft)
14.04.2014 19:58 7,6 C 5,6 C 83 % 1020,7 hPa 0,0 l/m 0 min 0 min 0,0 UV-I 19 W/m 12,9 km/h (3 Bft)
14.04.2014 20:00 7,7 C 5,6 C 83 % 1020,7 hPa 0,0 l/m 0 min 0 min 0,0 UV-I 18 W/m 7,7 km/h (2 Bft)
14.04.2014 20:02 7,7 C 5,6 C 82 % 1020,7 hPa 0,0 l/m 0 min 0 min 0,0 UV-I 16 W/m 12,9 km/h (3 Bft)
14.04.2014 20:04 7,6 C 5,6 C 82 % 1020,7 hPa 0,0 l/m 0 min 0 min 0,0 UV-I 16 W/m 10,3 km/h (2 Bft)
14.04.2014 20:06 7,6 C 5,6 C 82 % 1020,8 hPa 0,0 l/m 0 min 0 min 0,0 UV-I 12 W/m 15,4 km/h (3 Bft)
14.04.2014 20:08 7,6 C 5,0 C 82 % 1020,7 hPa 0,0 l/m 0 min 0 min 0,0 UV-I 11 W/m 15,4 km/h (3 Bft)
14.04.2014 20:10 7,6 C 5,0 C 82 % 1020,8 hPa 0,0 l/m 0 min 0 min 0,0 UV-I 9 W/m 12,9 km/h (3 Bft)
14.04.2014 20:12 7,6 C 5,0 C 82 % 1020,9 hPa 0,0 l/m 0 min 0 min 0,0 UV-I 9 W/m 5,1 km/h (1 Bft)
14.04.2014 20:14 7,5 C 5,0 C 82 % 1020,9 hPa 0,0 l/m 0 min 0 min 0,0 UV-I 9 W/m 2,6 km/h (1 Bft)
14.04.2014 20:16 7,4 C 5,0 C 82 % 1021,0 hPa 0,0 l/m 0 min 0 min 0,0 UV-I 7 W/m 7,7 km/h (2 Bft)
14.04.2014 20:18 7,4 C 5,0 C 82 % 1021,0 hPa 0,0 l/m 0 min 0 min 0,0 UV-I 7 W/m 10,3 km/h (2 Bft)
14.04.2014 20:20 7,3 C 5,0 C 82 % 1021,1 hPa 0,0 l/m 0 min 0 min 0,0 UV-I 7 W/m 2,6 km/h (1 Bft)
14.04.2014 20:22 7,3 C 5,0 C 83 % 1021,1 hPa 0,0 l/m 0 min 0 min 0,0 UV-I 7 W/m 2,6 km/h (1 Bft)
14.04.2014 20:24 7,2 C 5,0 C 83 % 1021,1 hPa 0,0 l/m 0 min 0 min 0,0 UV-I 5 W/m 2,6 km/h (1 Bft)
14.04.2014 20:26 7,2 C 5,0 C 83 % 1021,1 hPa 0,0 l/m 0 min 0 min 0,0 UV-I 5 W/m 0,0 km/h (0 Bft)
14.04.2014 20:28 7,1 C 5,0 C 84 % 1021,2 hPa 0,0 l/m 0 min 0 min 0,0 UV-I 5 W/m 5,1 km/h (1 Bft)
14.04.2014 20:30 7,1 C 5,0 C 84 % 1021,2 hPa 0,0 l/m 0 min 0 min 0,0 UV-I 0 W/m 7,7 km/h (2 Bft)
14.04.2014 20:32 7,0 C 5,0 C 84 % 1021,1 hPa 0,0 l/m 0 min 0 min 0,0 UV-I 0 W/m 5,1 km/h (1 Bft)
14.04.2014 20:34 7,0 C 5,0 C 84 % 1021,2 hPa 0,0 l/m 0 min 0 min 0,0 UV-I 0 W/m 7,7 km/h (2 Bft)
14.04.2014 20:36 7,0 C 5,0 C 83 % 1021,3 hPa 0,0 l/m 0 min 0 min 0,0 UV-I 0 W/m 10,3 km/h (2 Bft)
14.04.2014 20:38 7,0 C 5,0 C 83 % 1021,3 hPa 0,0 l/m 0 min 0 min 0,0 UV-I 0 W/m 7,7 km/h (2 Bft)
14.04.2014 20:40 7,0 C 5,0 C 83 % 1021,4 hPa 0,0 l/m 0 min 0 min 0,0 UV-I 0 W/m 12,9 km/h (3 Bft)
14.04.2014 20:42 7,0 C 5,0 C 82 % 1021,3 hPa 0,0 l/m 0 min 0 min 0,0 UV-I 0 W/m 15,4 km/h (3 Bft)
14.04.2014 20:44 7,0 C 5,0 C 82 % 1021,4 hPa 0,0 l/m 0 min 0 min 0,0 UV-I 0 W/m 12,9 km/h (3 Bft)
14.04.2014 20:46 7,1 C 5,0 C 81 % 1021,4 hPa 0,0 l/m 0 min 0 min 0,0 UV-I 0 W/m 10,3 km/h (2 Bft)
14.04.2014 20:48 7,1 C 5,0 C 81 % 1021,5 hPa 0,0 l/m 0 min 0 min 0,0 UV-I 0 W/m 15,4 km/h (3 Bft)
14.04.2014 20:50 7,1 C 5,0 C 81 % 1021,5 hPa 0,0 l/m 0 min 0 min 0,0 UV-I 0 W/m 5,1 km/h (1 Bft)
14.04.2014 20:52 7,2 C 5,0 C 81 % 1021,5 hPa 0,0 l/m 0 min 0 min 0,0 UV-I 0 W/m 10,3 km/h (2 Bft)
14.04.2014 20:54 7,2 C 5,6 C 81 % 1021,6 hPa 0,0 l/m 0 min 0 min 0,0 UV-I 0 W/m 12,9 km/h (3 Bft)
14.04.2014 20:56 7,2 C 5,0 C 81 % 1021,6 hPa 0,0 l/m 0 min 0 min 0,0 UV-I 0 W/m 0,0 km/h (0 Bft)
14.04.2014 20:58 7,2 C 5,0 C 81 % 1021,5 hPa 0,0 l/m 0 min 0 min 0,0 UV-I 0 W/m 0,0 km/h (0 Bft)
14.04.2014 21:00 7,2 C 5,0 C 81 % 1021,6 hPa 0,0 l/m 0 min 0 min 0,0 UV-I 0 W/m 5,1 km/h (1 Bft)
14.04.2014 21:02 7,2 C 5,0 C 81 % 1021,6 hPa 0,0 l/m 0 min 0 min 0,0 UV-I 0 W/m 7,7 km/h (2 Bft)
14.04.2014 21:04 7,2 C 5,0 C 81 % 1021,6 hPa 0,0 l/m 0 min 0 min 0,0 UV-I 0 W/m 12,9 km/h (3 Bft)
14.04.2014 21:06 7,2 C 5,0 C 81 % 1021,7 hPa 0,0 l/m 0 min 0 min 0,0 UV-I 0 W/m 2,6 km/h (1 Bft)
14.04.2014 21:08 7,2 C 5,0 C 81 % 1021,7 hPa 0,0 l/m 0 min 0 min 0,0 UV-I 0 W/m 0,0 km/h (0 Bft)
14.04.2014 21:10 7,1 C 5,0 C 81 % 1021,7 hPa 0,0 l/m 0 min 0 min 0,0 UV-I 0 W/m 0,0 km/h (0 Bft)
14.04.2014 21:12 7,0 C 5,0 C 82 % 1021,7 hPa 0,0 l/m 0 min 0 min 0,0 UV-I 0 W/m 0,0 km/h (0 Bft)
14.04.2014 21:14 6,9 C 5,0 C 82 % 1021,7 hPa 0,0 l/m 0 min 2 min 0,0 UV-I 0 W/m 0,0 km/h (0 Bft)
14.04.2014 21:16 6,9 C 5,0 C 82 % 1021,7 hPa 0,0 l/m 0 min 2 min 0,0 UV-I 0 W/m 0,0 km/h (0 Bft)
14.04.2014 21:18 6,8 C 5,0 C 83 % 1021,7 hPa 0,0 l/m 0 min 0 min 0,0 UV-I 0 W/m 7,7 km/h (2 Bft)
14.04.2014 21:20 6,7 C 5,0 C 83 % 1021,6 hPa 0,0 l/m 0 min 0 min 0,0 UV-I 0 W/m 2,6 km/h (1 Bft)
14.04.2014 21:22 6,7 C 5,0 C 83 % 1021,7 hPa 0,0 l/m 0 min 0 min 0,0 UV-I 0 W/m 7,7 km/h (2 Bft)
14.04.2014 21:24 6,6 C 4,4 C 83 % 1021,7 hPa 0,0 l/m 0 min 0 min 0,0 UV-I 0 W/m 10,3 km/h (2 Bft)
14.04.2014 21:26 6,5 C 4,4 C 83 % 1021,7 hPa 0,0 l/m 0 min 0 min 0,0 UV-I 0 W/m 0,0 km/h (0 Bft)
14.04.2014 21:28 6,4 C 4,4 C 83 % 1021,8 hPa 0,0 l/m 0 min 0 min 0,0 UV-I 0 W/m 0,0 km/h (0 Bft)
14.04.2014 21:30 6,4 C 4,4 C 83 % 1021,8 hPa 0,0 l/m 0 min 0 min 0,0 UV-I 0 W/m 0,0 km/h (0 Bft)
14.04.2014 21:32 6,3 C 4,4 C 84 % 1021,8 hPa 0,0 l/m 0 min 0 min 0,0 UV-I 0 W/m 0,0 km/h (0 Bft)
14.04.2014 21:34 6,2 C 4,4 C 84 % 1021,8 hPa 0,0 l/m 0 min 0 min 0,0 UV-I 0 W/m 0,0 km/h (0 Bft)
14.04.2014 21:36 6,2 C 4,4 C 84 % 1021,9 hPa 0,0 l/m 0 min 0 min 0,0 UV-I 0 W/m 0,0 km/h (0 Bft)
14.04.2014 21:38 6,1 C 4,4 C 84 % 1021,8 hPa 0,0 l/m 0 min 0 min 0,0 UV-I 0 W/m 2,6 km/h (1 Bft)
14.04.2014 21:40 6,1 C 4,4 C 84 % 1021,8 hPa 0,0 l/m 0 min 0 min 0,0 UV-I 0 W/m 0,0 km/h (0 Bft)
14.04.2014 21:42 6,1 C 4,4 C 84 % 1021,9 hPa 0,0 l/m 0 min 0 min 0,0 UV-I 0 W/m 0,0 km/h (0 Bft)
14.04.2014 21:44 6,1 C 4,4 C 84 % 1021,9 hPa 0,0 l/m 0 min 0 min 0,0 UV-I 0 W/m 0,0 km/h (0 Bft)
14.04.2014 21:46 6,1 C 4,4 C 84 % 1021,9 hPa 0,0 l/m 0 min 0 min 0,0 UV-I 0 W/m 15,4 km/h (3 Bft)
14.04.2014 21:48 6,1 C 4,4 C 84 % 1021,9 hPa 0,0 l/m 0 min 0 min 0,0 UV-I 0 W/m 5,1 km/h (1 Bft)
14.04.2014 21:50 6,1 C 4,4 C 84 % 1021,9 hPa 0,0 l/m 0 min 0 min 0,0 UV-I 0 W/m 0,0 km/h (0 Bft)
14.04.2014 21:52 6,1 C 4,4 C 84 % 1021,9 hPa 0,0 l/m 0 min 0 min 0,0 UV-I 0 W/m 2,6 km/h (1 Bft)
14.04.2014 21:54 6,1 C 4,4 C 84 % 1021,9 hPa 0,0 l/m 0 min 0 min 0,0 UV-I 0 W/m 0,0 km/h (0 Bft)
14.04.2014 21:56 6,1 C 4,4 C 84 % 1021,9 hPa 0,0 l/m 0 min 0 min 0,0 UV-I 0 W/m 0,0 km/h (0 Bft)
14.04.2014 21:58 6,1 C 4,4 C 84 % 1022,0 hPa 0,0 l/m 0 min 0 min 0,0 UV-I 0 W/m 0,0 km/h (0 Bft)
14.04.2014 22:00 6,1 C 4,4 C 84 % 1022,0 hPa 0,0 l/m 0 min 0 min 0,0 UV-I 0 W/m 2,6 km/h (1 Bft)
14.04.2014 22:02 6,0 C 4,4 C 84 % 1022,0 hPa 0,0 l/m 0 min 0 min 0,0 UV-I 0 W/m 0,0 km/h (0 Bft)
14.04.2014 22:06 5,9 C 4,4 C 84 % 1022,0 hPa 0,0 l/m 0 min 0 min 0,0 UV-I 0 W/m 0,0 km/h (0 Bft)
14.04.2014 22:08 5,9 C 4,4 C 84 % 1022,1 hPa 0,0 l/m 0 min 0 min 0,0 UV-I 0 W/m 0,0 km/h (0 Bft)
14.04.2014 22:10 5,8 C 4,4 C 84 % 1022,1 hPa 0,0 l/m 0 min 0 min 0,0 UV-I 0 W/m 10,3 km/h (2 Bft)
14.04.2014 22:12 5,9 C 4,4 C 84 % 1022,1 hPa 0,0 l/m 0 min 0 min 0,0 UV-I 0 W/m 2,6 km/h (1 Bft)
14.04.2014 22:14 5,9 C 4,4 C 84 % 1022,1 hPa 0,0 l/m 0 min 0 min 0,0 UV-I 0 W/m 0,0 km/h (0 Bft)
14.04.2014 22:16 5,9 C 4,4 C 84 % 1022,1 hPa 0,0 l/m 0 min 0 min 0,0 UV-I 0 W/m 5,1 km/h (1 Bft)
14.04.2014 22:18 5,9 C 4,4 C 84 % 1022,1 hPa 0,0 l/m 0 min 0 min 0,0 UV-I 0 W/m 0,0 km/h (0 Bft)
14.04.2014 22:20 5,9 C 4,4 C 84 % 1022,1 hPa 0,0 l/m 0 min 0 min 0,0 UV-I 0 W/m 0,0 km/h (0 Bft)
14.04.2014 22:22 5,9 C 4,4 C 85 % 1022,2 hPa 0,0 l/m 0 min 0 min 0,0 UV-I 0 W/m 0,0 km/h (0 Bft)
14.04.2014 22:24 5,9 C 4,4 C 85 % 1022,2 hPa 0,0 l/m 0 min 0 min 0,0 UV-I 0 W/m 0,0 km/h (0 Bft)
14.04.2014 22:26 5,9 C 4,4 C 85 % 1022,2 hPa 0,0 l/m 0 min 0 min 0,0 UV-I 0 W/m 0,0 km/h (0 Bft)
14.04.2014 22:28 5,9 C 4,4 C 85 % 1022,2 hPa 0,0 l/m 0 min 0 min 0,0 UV-I 0 W/m 0,0 km/h (0 Bft)
14.04.2014 22:30 5,9 C 4,4 C 85 % 1022,2 hPa 0,0 l/m 0 min 0 min 0,0 UV-I 0 W/m 2,6 km/h (1 Bft)
14.04.2014 22:32 5,9 C 4,4 C 85 % 1022,2 hPa 0,0 l/m 0 min 0 min 0,0 UV-I 0 W/m 0,0 km/h (0 Bft)
14.04.2014 22:34 5,9 C 4,4 C 85 % 1022,2 hPa 0,0 l/m 0 min 0 min 0,0 UV-I 0 W/m 0,0 km/h (0 Bft)
14.04.2014 22:36 5,8 C 4,4 C 86 % 1022,2 hPa 0,0 l/m 0 min 0 min 0,0 UV-I 0 W/m 5,1 km/h (1 Bft)
14.04.2014 22:38 5,8 C 4,4 C 86 % 1022,2 hPa 0,0 l/m 0 min 0 min 0,0 UV-I 0 W/m 0,0 km/h (0 Bft)
14.04.2014 22:40 5,8 C 4,4 C 86 % 1022,3 hPa 0,0 l/m 0 min 0 min 0,0 UV-I 0 W/m 0,0 km/h (0 Bft)
14.04.2014 22:42 5,9 C 4,4 C 86 % 1022,4 hPa 0,0 l/m 0 min 0 min 0,0 UV-I 0 W/m 0,0 km/h (0 Bft)
14.04.2014 22:44 5,9 C 4,4 C 86 % 1022,4 hPa 0,0 l/m 0 min 0 min 0,0 UV-I 0 W/m 5,1 km/h (1 Bft)
14.04.2014 22:46 6,0 C 4,4 C 86 % 1022,4 hPa 0,0 l/m 0 min 0 min 0,0 UV-I 0 W/m 2,6 km/h (1 Bft)
14.04.2014 22:48 6,1 C 5,0 C 86 % 1022,5 hPa 0,0 l/m 0 min 2 min 0,0 UV-I 0 W/m 5,1 km/h (1 Bft)
14.04.2014 22:50 6,1 C 5,0 C 86 % 1022,6 hPa 0,0 l/m 0 min 2 min 0,0 UV-I 0 W/m 5,1 km/h (1 Bft)
14.04.2014 22:52 6,2 C 5,0 C 86 % 1022,7 hPa 0,0 l/m 0 min 2 min 0,0 UV-I 0 W/m 2,6 km/h (1 Bft)
14.04.2014 22:54 6,2 C 4,4 C 86 % 1022,7 hPa 0,0 l/m 0 min 2 min 0,0 UV-I 0 W/m 7,7 km/h (2 Bft)
14.04.2014 22:56 6,2 C 4,4 C 86 % 1022,7 hPa 0,0 l/m 0 min 2 min 0,0 UV-I 0 W/m 7,7 km/h (2 Bft)
14.04.2014 22:58 6,1 C 4,4 C 86 % 1022,8 hPa 0,0 l/m 0 min 2 min 0,0 UV-I 0 W/m 12,9 km/h (3 Bft)
14.04.2014 23:00 6,1 C 3,9 C 87 % 1022,8 hPa 0,2 l/m 0 min 2 min 0,0 UV-I 0 W/m 18,0 km/h (3 Bft)
14.04.2014 23:02 5,9 C 3,9 C 87 % 1022,8 hPa 0,2 l/m 0 min 2 min 0,0 UV-I 0 W/m 15,4 km/h (3 Bft)
14.04.2014 23:06 5,7 C 3,9 C 87 % 1022,8 hPa 0,0 l/m 0 min 2 min 0,0 UV-I 0 W/m 15,4 km/h (3 Bft)
14.04.2014 23:08 5,7 C 3,9 C 87 % 1022,9 hPa 0,0 l/m 0 min 2 min 0,0 UV-I 0 W/m 12,9 km/h (3 Bft)
14.04.2014 23:10 5,6 C 3,3 C 88 % 1022,9 hPa 0,0 l/m 0 min 0 min 0,0 UV-I 0 W/m 7,7 km/h (2 Bft)
14.04.2014 23:12 5,4 C 3,3 C 88 % 1022,9 hPa 0,0 l/m 0 min 0 min 0,0 UV-I 0 W/m 7,7 km/h (2 Bft)
14.04.2014 23:14 5,3 C 3,3 C 88 % 1022,9 hPa 0,0 l/m 0 min 0 min 0,0 UV-I 0 W/m 7,7 km/h (2 Bft)
14.04.2014 23:16 5,2 C 3,3 C 88 % 1023,0 hPa 0,0 l/m 0 min 0 min 0,0 UV-I 0 W/m 12,9 km/h (3 Bft)
14.04.2014 23:18 5,2 C 3,3 C 88 % 1023,0 hPa 0,0 l/m 0 min 0 min 0,0 UV-I 0 W/m 7,7 km/h (2 Bft)
14.04.2014 23:20 5,1 C 3,3 C 88 % 1023,1 hPa 0,0 l/m 0 min 0 min 0,0 UV-I 0 W/m 7,7 km/h (2 Bft)
14.04.2014 23:22 5,1 C 3,3 C 89 % 1023,1 hPa 0,0 l/m 0 min 0 min 0,0 UV-I 0 W/m 5,1 km/h (1 Bft)
14.04.2014 23:24 5,1 C 3,3 C 89 % 1023,1 hPa 0,0 l/m 0 min 0 min 0,0 UV-I 0 W/m 5,1 km/h (1 Bft)
14.04.2014 23:26 5,0 C 3,3 C 89 % 1023,1 hPa 0,0 l/m 0 min 0 min 0,0 UV-I 0 W/m 0,0 km/h (0 Bft)
14.04.2014 23:28 5,0 C 3,3 C 89 % 1023,1 hPa 0,0 l/m 0 min 0 min 0,0 UV-I 0 W/m 12,9 km/h (3 Bft)
14.04.2014 23:30 5,1 C 3,3 C 89 % 1023,1 hPa 0,0 l/m 0 min 0 min 0,0 UV-I 0 W/m 12,9 km/h (3 Bft)
14.04.2014 23:32 5,1 C 3,3 C 90 % 1023,1 hPa 0,0 l/m 0 min 0 min 0,0 UV-I 0 W/m 10,3 km/h (2 Bft)
14.04.2014 23:34 5,1 C 3,3 C 90 % 1023,1 hPa 0,0 l/m 0 min 0 min 0,0 UV-I 0 W/m 7,7 km/h (2 Bft)
14.04.2014 23:36 5,1 C 3,3 C 90 % 1023,1 hPa 0,0 l/m 0 min 0 min 0,0 UV-I 0 W/m 0,0 km/h (0 Bft)
14.04.2014 23:38 5,1 C 3,3 C 90 % 1023,1 hPa 0,0 l/m 0 min 0 min 0,0 UV-I 0 W/m 7,7 km/h (2 Bft)
14.04.2014 23:40 5,1 C 3,3 C 90 % 1023,1 hPa 0,0 l/m 0 min 0 min 0,0 UV-I 0 W/m 0,0 km/h (0 Bft)
14.04.2014 23:42 5,1 C 3,3 C 90 % 1023,1 hPa 0,0 l/m 0 min 0 min 0,0 UV-I 0 W/m 5,1 km/h (1 Bft)
14.04.2014 23:44 5,0 C 3,3 C 90 % 1023,1 hPa 0,0 l/m 0 min 0 min 0,0 UV-I 0 W/m 2,6 km/h (1 Bft)
14.04.2014 23:46 4,9 C 3,3 C 90 % 1023,1 hPa 0,0 l/m 0 min 0 min 0,0 UV-I 0 W/m 0,0 km/h (0 Bft)
14.04.2014 23:48 4,9 C 3,3 C 90 % 1023,1 hPa 0,0 l/m 0 min 0 min 0,0 UV-I 0 W/m 0,0 km/h (0 Bft)
14.04.2014 23:50 4,9 C 3,3 C 90 % 1023,2 hPa 0,0 l/m 0 min 0 min 0,0 UV-I 0 W/m 0,0 km/h (0 Bft)
14.04.2014 23:52 4,9 C 3,3 C 90 % 1023,2 hPa 0,0 l/m 0 min 0 min 0,0 UV-I 0 W/m 0,0 km/h (0 Bft)
14.04.2014 23:54 4,9 C 3,3 C 95 % 1023,2 hPa 0,0 l/m 0 min 2 min 0,0 UV-I 0 W/m 0,0 km/h (0 Bft)
14.04.2014 23:56 5,0 C 3,3 C 91 % 1023,2 hPa 0,0 l/m 0 min 0 min 0,0 UV-I 0 W/m 0,0 km/h (0 Bft)
14.04.2014 23:58 5,0 C 3,9 C 91 % 1023,1 hPa 0,0 l/m 0 min 0 min 0,0 UV-I 0 W/m 0,0 km/h (0 Bft)
_ Min-Zeit 23:46 23:10 16:16 05:42 - - - - - 00:00
Minimum _ 4,9 C 3,3 C 54 % 1014,6 hPa - - - - - 0,0 km/h (0 Bft)
_ Max-Zeit 13:16 13:08 23:54 23:50 13:30 08:00 07:38 12:16 13:46 16:16
Maximum _ 14,2 C 15,6 C 95 % 1023,2 hPa 0,2 l/m 2 min 2 min 2,6 UV-I 1011 W/m 48,9 km/h
N (6 Bft)
Durchschnitt _ 9,2 C 8,1 C 76 % 1018,0 hPa #1,2 l/m #4:30 h #2:18 h 1,4 UV-I 273 W/m 13,9 km/h (3 Bft)
© 2014 W. Hausmann